Time,TemperatureF,DewpointF,PressureIn,WindDirection,WindDirectionDegrees,WindSpeedMPH,WindSpeedGustMPH,Humidity,HourlyPrecipIn,Conditions,Clouds,dailyrainin,SoftwareType,DateUTC
2013-05-28 00:00:00,57.2,31.2,29.79,WSW,248,6.5,7.2,37,0.00,,SKC,3.51,VWS V14.00,2013-05-28 07:00:00,
2013-05-28 00:01:00,57.2,31.2,29.82,WNW,292,5.4,6.5,37,0.00,,SKC,3.51,VWS V14.00,2013-05-28 07:01:00,
2013-05-28 00:02:00,56.7,32.6,29.82,West,270,6.5,7.8,40,0.00,,SKC,3.51,VWS V14.00,2013-05-28 07:02:00,
2013-05-28 00:05:00,56.3,33.5,29.82,West,270,6.0,9.8,42,0.00,,SKC,3.51,VWS V14.00,2013-05-28 07:05:00,
2013-05-28 00:06:00,55.9,33.8,29.82,West,270,5.6,6.0,43,0.00,,SKC,3.51,VWS V14.00,2013-05-28 07:06:00,
2013-05-28 00:07:00,55.8,34.2,29.82,West,270,4.9,6.0,44,0.00,,SKC,3.51,VWS V14.00,2013-05-28 07:07:00,
2013-05-28 00:10:00,55.4,34.4,29.82,WSW,248,5.6,5.6,45,0.00,,SKC,3.51,VWS V14.00,2013-05-28 07:10:00,
2013-05-28 00:11:00,55.4,34.4,29.82,West,270,7.2,7.2,45,0.00,,SKC,3.51,VWS V14.00,2013-05-28 07:11:00,
2013-05-28 00:12:00,55.4,34.4,29.82,West,270,3.1,7.2,45,0.00,,SKC,3.51,VWS V14.00,2013-05-28 07:12:00,
2013-05-28 00:15:00,55.2,34.8,29.82,West,270,4.5,7.2,46,0.00,,SKC,3.51,VWS V14.00,2013-05-28 07:15:00,
2013-05-28 00:16:00,55.2,34.8,29.82,West,270,3.8,6.0,46,0.00,,SKC,3.51,VWS V14.00,2013-05-28 07:16:00,
2013-05-28 00:17:00,55.2,34.8,29.82,West,270,3.8,6.0,46,0.00,,SKC,3.51,VWS V14.00,2013-05-28 07:17:00,
2013-05-28 00:20:00,55.2,34.8,29.82,West,270,6.7,6.7,46,0.00,,SKC,3.51,VWS V14.00,2013-05-28 07:20:00,
2013-05-28 00:21:00,55.4,35.0,29.82,West,270,6.0,6.7,46,0.00,,SKC,3.51,VWS V14.00,2013-05-28 07:21:00,
2013-05-28 00:22:00,55.4,35.0,29.82,West,270,6.0,6.7,46,0.00,,SKC,3.51,VWS V14.00,2013-05-28 07:22:00,
2013-05-28 00:25:00,55.4,35.0,29.82,West,270,9.0,9.0,46,0.00,,SKC,3.51,VWS V14.00,2013-05-28 07:25:00,
2013-05-28 00:26:00,55.4,35.0,29.82,West,270,9.0,9.0,46,0.00,,SKC,3.51,VWS V14.00,2013-05-28 07:26:00,
2013-05-28 00:27:00,55.4,35.0,29.82,WNW,292,4.9,9.0,46,0.00,,SKC,3.51,VWS V14.00,2013-05-28 07:27:00,
2013-05-28 00:30:00,55.8,34.8,29.82,WSW,248,8.7,8.7,45,0.00,,SKC,3.51,VWS V14.00,2013-05-28 07:30:00,
2013-05-28 00:31:00,55.8,34.8,29.82,West,270,6.5,8.7,45,0.00,,SKC,3.51,VWS V14.00,2013-05-28 07:31:00,
2013-05-28 00:32:00,55.8,34.8,29.82,West,270,6.5,8.7,45,0.00,,SKC,3.51,VWS V14.00,2013-05-28 07:32:00,
2013-05-28 00:35:00,55.4,35.5,29.82,West,270,7.6,8.5,47,0.00,,SKC,3.51,VWS V14.00,2013-05-28 07:35:00,
2013-05-28 00:36:00,55.2,35.9,29.82,WNW,292,6.0,8.5,48,0.00,,SKC,3.51,VWS V14.00,2013-05-28 07:36:00,
2013-05-28 00:37:00,55.0,35.7,29.82,West,270,7.8,8.5,48,0.00,,SKC,3.51,VWS V14.00,2013-05-28 07:37:00,
2013-05-28 00:38:00,54.9,36.1,29.82,West,270,6.3,8.5,49,0.00,,SKC,3.51,VWS V14.00,2013-05-28 07:38:00,
2013-05-28 00:40:00,54.5,36.3,29.82,West,270,4.3,7.8,50,0.00,,SKC,3.51,VWS V14.00,2013-05-28 07:40:00,
2013-05-28 00:41:00,54.5,36.3,29.82,West,270,4.3,7.8,50,0.00,,SKC,3.51,VWS V14.00,2013-05-28 07:41:00,
2013-05-28 00:42:00,54.5,36.3,29.82,West,270,4.3,7.8,50,0.00,,SKC,3.51,VWS V14.00,2013-05-28 07:42:00,
2013-05-28 00:43:00,54.5,36.3,29.82,NW,315,7.8,7.8,50,0.00,,SKC,3.51,VWS V14.00,2013-05-28 07:43:00,
2013-05-28 00:45:00,54.5,36.3,29.82,West,270,7.6,10.7,50,0.00,,SKC,3.51,VWS V14.00,2013-05-28 07:45:00,
2013-05-28 00:46:00,54.5,36.3,29.82,West,270,7.8,8.5,50,0.00,,SKC,3.51,VWS V14.00,2013-05-28 07:46:00,
2013-05-28 00:47:00,54.5,36.3,29.82,West,270,7.4,8.5,50,0.00,,SKC,3.51,VWS V14.00,2013-05-28 07:47:00,
2013-05-28 00:48:00,54.5,36.3,29.82,West,270,7.2,8.5,50,0.00,,SKC,3.51,VWS V14.00,2013-05-28 07:48:00,
2013-05-28 00:50:00,54.5,35.2,29.82,WNW,292,10.5,10.5,48,0.00,,SKC,3.51,VWS V14.00,2013-05-28 07:50:00,
2013-05-28 00:51:00,54.5,35.2,29.82,West,270,6.3,10.5,48,0.00,,SKC,3.51,VWS V14.00,2013-05-28 07:51:00,
2013-05-28 00:52:00,54.5,35.2,29.82,West,270,6.3,10.5,48,0.00,,SKC,3.51,VWS V14.00,2013-05-28 07:52:00,
2013-05-28 00:53:00,54.5,35.8,29.82,West,270,8.1,10.5,49,0.00,,SKC,3.51,VWS V14.00,2013-05-28 07:53:00,
2013-05-28 00:55:00,54.5,35.2,29.82,WNW,292,6.0,10.5,48,0.00,,SKC,3.51,VWS V14.00,2013-05-28 07:55:00,
2013-05-28 00:56:00,54.5,35.2,29.82,WNW,292,7.2,8.1,48,0.00,,SKC,3.51,VWS V14.00,2013-05-28 07:56:00,
2013-05-28 00:57:00,54.5,35.2,29.82,West,270,6.9,8.1,48,0.00,,SKC,3.51,VWS V14.00,2013-05-28 07:57:00,
2013-05-28 00:58:00,54.7,35.4,29.82,West,270,7.8,8.1,48,0.00,,SKC,3.51,VWS V14.00,2013-05-28 07:58:00,
2013-05-28 01:00:00,54.7,35.4,29.82,West,270,6.0,8.7,48,0.00,,SKC,3.51,VWS V14.00,2013-05-28 08:00:00,
2013-05-28 01:01:00,54.7,35.4,29.82,West,270,7.4,7.4,48,0.00,,SKC,3.51,VWS V14.00,2013-05-28 08:01:00,
2013-05-28 01:02:00,54.7,35.4,29.82,West,270,7.4,7.4,48,0.00,,SKC,3.51,VWS V14.00,2013-05-28 08:02:00,
2013-05-28 01:03:00,54.7,35.4,29.82,West,270,8.1,8.1,48,0.00,,SKC,3.51,VWS V14.00,2013-05-28 08:03:00,
2013-05-28 01:05:00,54.7,34.9,29.82,West,270,4.9,8.1,47,0.00,,SKC,3.51,VWS V14.00,2013-05-28 08:05:00,
2013-05-28 01:06:00,54.7,34.9,29.82,West,270,6.0,7.8,47,0.00,,SKC,3.51,VWS V14.00,2013-05-28 08:06:00,
2013-05-28 01:07:00,54.7,34.9,29.82,WSW,248,5.4,7.8,47,0.00,,SKC,3.51,VWS V14.00,2013-05-28 08:07:00,
2013-05-28 01:08:00,54.7,34.9,29.82,WNW,292,11.0,11.0,47,0.00,,SKC,3.51,VWS V14.00,2013-05-28 08:08:00,
2013-05-28 01:10:00,55.0,34.7,29.82,WSW,248,10.1,11.0,46,0.00,,SKC,3.51,VWS V14.00,2013-05-28 08:10:00,
2013-05-28 01:12:00,55.0,35.2,29.82,WNW,292,7.4,10.1,47,0.00,,SKC,3.51,VWS V14.00,2013-05-28 08:12:00,
2013-05-28 01:13:00,55.0,35.2,29.82,WNW,292,7.4,10.1,47,0.00,,SKC,3.51,VWS V14.00,2013-05-28 08:13:00,
2013-05-28 01:15:00,55.0,34.7,29.82,WNW,292,8.1,10.3,46,0.00,,SKC,3.51,VWS V14.00,2013-05-28 08:15:00,
2013-05-28 01:17:00,55.0,35.2,29.82,West,270,7.6,8.7,47,0.00,,SKC,3.51,VWS V14.00,2013-05-28 08:17:00,
2013-05-28 01:18:00,55.2,34.8,29.82,West,270,7.8,8.7,46,0.00,,SKC,3.51,VWS V14.00,2013-05-28 08:18:00,
2013-05-28 01:20:00,55.2,34.8,29.82,West,270,6.5,9.0,46,0.00,,SKC,3.51,VWS V14.00,2013-05-28 08:20:00,
2013-05-28 01:22:00,55.2,34.8,29.82,West,270,8.7,8.7,46,0.00,,SKC,3.51,VWS V14.00,2013-05-28 08:22:00,
2013-05-28 01:23:00,55.2,34.8,29.82,West,270,12.3,12.3,46,0.00,,SKC,3.51,VWS V14.00,2013-05-28 08:23:00,
2013-05-28 01:25:00,55.2,34.8,29.82,West,270,10.1,12.3,46,0.00,,SKC,3.51,VWS V14.00,2013-05-28 08:25:00,
2013-05-28 01:27:00,55.2,34.3,29.82,West,270,8.5,10.1,45,0.00,,SKC,3.51,VWS V14.00,2013-05-28 08:27:00,
2013-05-28 01:28:00,55.2,34.8,29.82,WNW,292,9.8,10.1,46,0.00,,SKC,3.51,VWS V14.00,2013-05-28 08:28:00,
2013-05-28 01:30:00,55.2,34.3,29.82,West,270,8.7,10.7,45,0.00,,SKC,3.51,VWS V14.00,2013-05-28 08:30:00,
2013-05-28 01:32:00,55.2,34.8,29.82,West,270,7.6,8.7,46,0.00,,SKC,3.51,VWS V14.00,2013-05-28 08:32:00,
2013-05-28 01:33:00,55.2,34.8,29.82,West,270,7.6,8.7,46,0.00,,SKC,3.51,VWS V14.00,2013-05-28 08:33:00,
2013-05-28 01:35:00,55.2,34.8,29.82,WNW,292,7.4,12.1,46,0.00,,SKC,3.51,VWS V14.00,2013-05-28 08:35:00,
2013-05-28 01:37:00,55.4,33.3,29.82,West,270,5.8,9.8,43,0.00,,SKC,3.51,VWS V14.00,2013-05-28 08:37:00,
2013-05-28 01:38:00,55.4,33.3,29.82,West,270,5.4,9.8,43,0.00,,SKC,3.51,VWS V14.00,2013-05-28 08:38:00,
2013-05-28 01:40:00,55.4,33.3,29.82,West,270,6.0,9.8,43,0.00,,SKC,3.51,VWS V14.00,2013-05-28 08:40:00,
2013-05-28 01:42:00,55.4,33.3,29.79,West,270,7.4,9.0,43,0.00,,SKC,3.51,VWS V14.00,2013-05-28 08:42:00,
2013-05-28 01:43:00,55.2,34.3,29.79,SW,225,5.6,9.0,45,0.00,,SKC,3.51,VWS V14.00,2013-05-28 08:43:00,
2013-05-28 01:44:00,55.2,34.3,29.79,West,270,6.5,9.0,45,0.00,,SKC,3.51,VWS V14.00,2013-05-28 08:44:00,
2013-05-28 01:45:00,55.2,34.3,29.80,West,270,6.3,9.0,45,0.00,,SKC,3.51,VWS V14.00,2013-05-28 08:45:00,
2013-05-28 01:48:00,54.9,33.9,29.79,WSW,248,7.6,7.6,45,0.00,,SKC,3.51,VWS V14.00,2013-05-28 08:48:00,
2013-05-28 01:49:00,54.9,33.9,29.79,West,270,6.0,8.5,45,0.00,,SKC,3.51,VWS V14.00,2013-05-28 08:49:00,
2013-05-28 01:50:00,54.9,33.9,29.80,WSW,248,7.6,8.5,45,0.00,,SKC,3.51,VWS V14.00,2013-05-28 08:50:00,
2013-05-28 01:53:00,54.9,33.9,29.79,WSW,248,5.6,7.6,45,0.00,,SKC,3.51,VWS V14.00,2013-05-28 08:53:00,
2013-05-28 01:54:00,54.9,34.5,29.79,West,270,4.7,7.6,46,0.00,,SKC,3.51,VWS V14.00,2013-05-28 08:54:00,
2013-05-28 01:55:00,54.9,34.5,29.80,West,270,3.6,7.6,46,0.00,,SKC,3.51,VWS V14.00,2013-05-28 08:55:00,
2013-05-28 01:58:00,54.7,34.3,29.79,West,270,4.3,5.4,46,0.00,,SKC,3.51,VWS V14.00,2013-05-28 08:58:00,
2013-05-28 01:59:00,54.7,34.3,29.79,West,270,3.8,5.6,46,0.00,,SKC,3.51,VWS V14.00,2013-05-28 08:59:00,
2013-05-28 02:03:00,54.7,34.3,29.82,West,270,5.6,6.3,46,0.00,,SKC,3.51,VWS V14.00,2013-05-28 09:03:00,
2013-05-28 02:04:00,54.7,34.3,29.82,West,270,7.4,7.4,46,0.00,,SKC,3.51,VWS V14.00,2013-05-28 09:04:00,
2013-05-28 02:08:00,54.9,33.9,29.82,West,270,4.7,7.4,45,0.00,,SKC,3.51,VWS V14.00,2013-05-28 09:08:00,
2013-05-28 02:09:00,54.9,33.9,29.82,WSW,248,3.1,7.4,45,0.00,,SKC,3.51,VWS V14.00,2013-05-28 09:09:00,
2013-05-28 02:10:00,54.9,33.9,29.82,SW,225,2.5,7.4,45,0.00,,SKC,3.51,VWS V14.00,2013-05-28 09:10:00,
2013-05-28 02:13:00,54.7,33.8,29.82,West,270,2.7,6.0,45,0.00,,SKC,3.51,VWS V14.00,2013-05-28 09:13:00,
2013-05-28 02:14:00,54.7,33.2,29.82,West,270,4.9,6.0,44,0.00,,SKC,3.51,VWS V14.00,2013-05-28 09:14:00,
2013-05-28 02:15:00,54.7,33.2,29.79,West,270,4.0,6.0,44,0.00,,SKC,3.51,VWS V14.00,2013-05-28 09:15:00,
2013-05-28 02:18:00,54.7,33.2,29.79,WNW,292,3.8,4.7,44,0.00,,SKC,3.51,VWS V14.00,2013-05-28 09:18:00,
2013-05-28 02:19:00,54.7,33.2,29.79,WNW,292,3.8,4.7,44,0.00,,SKC,3.51,VWS V14.00,2013-05-28 09:19:00,
2013-05-28 02:20:00,54.5,33.0,29.79,WNW,292,0.0,0.0,44,0.00,,SKC,3.51,VWS V14.00,2013-05-28 09:20:00,
2013-05-28 02:23:00,54.3,33.5,29.79,NW,315,0.0,0.0,45,0.00,,SKC,3.51,VWS V14.00,2013-05-28 09:23:00,
2013-05-28 02:24:00,54.3,33.5,29.79,NW,315,0.0,0.0,45,0.00,,SKC,3.51,VWS V14.00,2013-05-28 09:24:00,
2013-05-28 02:25:00,54.1,33.3,29.80,NW,315,0.0,0.0,45,0.00,,SKC,3.51,VWS V14.00,2013-05-28 09:25:00,
2013-05-28 02:26:00,54.1,33.3,29.79,NW,315,0.0,0.0,45,0.00,,SKC,3.51,VWS V14.00,2013-05-28 09:26:00,
2013-05-28 02:28:00,54.1,32.7,29.79,NNW,338,1.1,1.1,44,0.00,,SKC,3.51,VWS V14.00,2013-05-28 09:28:00,
2013-05-28 02:29:00,54.1,32.7,29.79,North,0,3.1,3.1,44,0.00,,SKC,3.51,VWS V14.00,2013-05-28 09:29:00,
2013-05-28 02:30:00,54.1,32.7,29.80,WNW,292,6.0,6.0,44,0.00,,SKC,3.51,VWS V14.00,2013-05-28 09:30:00,
2013-05-28 02:31:00,54.3,32.9,29.79,NW,315,4.9,6.0,44,0.00,,SKC,3.51,VWS V14.00,2013-05-28 09:31:00,
2013-05-28 02:34:00,54.5,33.0,29.79,WNW,292,3.1,6.0,44,0.00,,SKC,3.51,VWS V14.00,2013-05-28 09:34:00,
2013-05-28 02:35:00,54.5,33.0,29.79,NW,315,4.0,4.0,44,0.00,,SKC,3.51,VWS V14.00,2013-05-28 09:35:00,
2013-05-28 02:36:00,54.5,33.0,29.79,NNW,338,3.1,4.0,44,0.00,,SKC,3.51,VWS V14.00,2013-05-28 09:36:00,
2013-05-28 02:39:00,54.5,33.0,29.79,North,0,3.1,4.0,44,0.00,,SKC,3.51,VWS V14.00,2013-05-28 09:39:00,
2013-05-28 02:40:00,54.5,33.0,29.79,NNW,338,3.8,4.0,44,0.00,,SKC,3.51,VWS V14.00,2013-05-28 09:40:00,
2013-05-28 02:41:00,54.5,33.0,29.79,NW,315,5.4,5.4,44,0.00,,SKC,3.51,VWS V14.00,2013-05-28 09:41:00,
2013-05-28 02:44:00,54.5,33.6,29.79,NNW,338,4.7,5.8,45,0.00,,SKC,3.51,VWS V14.00,2013-05-28 09:44:00,
2013-05-28 02:45:00,54.5,33.6,29.79,WNW,292,5.6,5.8,45,0.00,,SKC,3.51,VWS V14.00,2013-05-28 09:45:00,
2013-05-28 02:46:00,54.5,33.6,29.79,NNW,338,4.5,5.8,45,0.00,,SKC,3.51,VWS V14.00,2013-05-28 09:46:00,
2013-05-28 02:49:00,54.5,33.6,29.79,NNW,338,3.8,6.0,45,0.00,,SKC,3.51,VWS V14.00,2013-05-28 09:49:00,
2013-05-28 02:50:00,54.5,33.6,29.79,WNW,292,6.5,6.5,45,0.00,,SKC,3.51,VWS V14.00,2013-05-28 09:50:00,
2013-05-28 02:51:00,54.5,34.2,29.79,WNW,292,6.5,7.4,46,0.00,,SKC,3.51,VWS V14.00,2013-05-28 09:51:00,
2013-05-28 02:54:00,54.5,34.2,29.79,WNW,292,5.4,7.4,46,0.00,,SKC,3.51,VWS V14.00,2013-05-28 09:54:00,
2013-05-28 02:55:00,54.5,34.2,29.79,NW,315,3.1,7.4,46,0.00,,SKC,3.51,VWS V14.00,2013-05-28 09:55:00,
2013-05-28 02:56:00,54.5,34.2,29.79,NNW,338,3.8,4.3,46,0.00,,SKC,3.51,VWS V14.00,2013-05-28 09:56:00,
2013-05-28 02:59:00,54.3,34.0,29.79,WNW,292,6.5,6.5,46,0.00,,SKC,3.51,VWS V14.00,2013-05-28 09:59:00,
2013-05-28 03:00:00,54.3,34.0,29.79,NW,315,2.7,6.5,46,0.00,,SKC,3.51,VWS V14.00,2013-05-28 10:00:00,
2013-05-28 03:01:00,54.3,34.0,29.79,NW,315,2.7,6.5,46,0.00,,SKC,3.51,VWS V14.00,2013-05-28 10:01:00,
2013-05-28 03:04:00,54.3,34.0,29.79,WNW,292,5.8,6.5,46,0.00,,SKC,3.51,VWS V14.00,2013-05-28 10:04:00,
2013-05-28 03:05:00,54.3,34.0,29.79,WNW,292,7.4,8.1,46,0.00,,SKC,3.51,VWS V14.00,2013-05-28 10:05:00,
2013-05-28 03:06:00,54.3,34.0,29.79,WNW,292,5.6,7.4,46,0.00,,SKC,3.51,VWS V14.00,2013-05-28 10:06:00,
2013-05-28 03:10:00,54.1,33.8,29.79,NNW,338,4.0,7.4,46,0.00,,SKC,3.51,VWS V14.00,2013-05-28 10:10:00,
2013-05-28 03:11:00,54.0,34.2,29.79,NW,315,4.0,4.3,47,0.00,,SKC,3.51,VWS V14.00,2013-05-28 10:11:00,
2013-05-28 03:15:00,53.4,34.2,29.79,NW,315,2.9,4.3,48,0.00,,SKC,3.51,VWS V14.00,2013-05-28 10:15:00,
2013-05-28 03:16:00,53.2,34.1,29.79,NNW,338,2.9,3.4,48,0.00,,SKC,3.51,VWS V14.00,2013-05-28 10:16:00,
2013-05-28 03:17:00,53.2,34.6,29.79,NNW,338,3.8,4.9,49,0.00,,SKC,3.51,VWS V14.00,2013-05-28 10:17:00,
2013-05-28 03:20:00,53.1,35.4,29.79,NNW,338,3.4,6.3,51,0.00,,SKC,3.51,VWS V14.00,2013-05-28 10:20:00,
2013-05-28 03:21:00,53.1,35.4,29.79,NNW,338,3.6,3.6,51,0.00,,SKC,3.51,VWS V14.00,2013-05-28 10:21:00,
2013-05-28 03:22:00,53.1,35.4,29.79,NNW,338,3.6,3.8,51,0.00,,SKC,3.51,VWS V14.00,2013-05-28 10:22:00,
2013-05-28 03:25:00,52.5,35.4,29.79,NW,315,3.6,3.8,52,0.00,,SKC,3.51,VWS V14.00,2013-05-28 10:25:00,
2013-05-28 03:27:00,52.5,35.9,29.79,NNW,338,6.5,6.5,53,0.00,,SKC,3.51,VWS V14.00,2013-05-28 10:27:00,
2013-05-28 03:30:00,52.3,36.2,29.79,NNW,338,3.1,6.5,54,0.00,,SKC,3.51,VWS V14.00,2013-05-28 10:30:00,
2013-05-28 03:32:00,52.3,36.2,29.79,NNW,338,3.4,4.0,54,0.00,,SKC,3.51,VWS V14.00,2013-05-28 10:32:00,
2013-05-28 03:35:00,52.2,36.5,29.79,NW,315,3.6,4.0,55,0.00,,SKC,3.51,VWS V14.00,2013-05-28 10:35:00,
2013-05-28 03:37:00,52.2,37.0,29.79,NW,315,3.4,4.0,56,0.00,,SKC,3.51,VWS V14.00,2013-05-28 10:37:00,
2013-05-28 03:40:00,52.2,37.4,29.79,WNW,292,4.0,5.4,57,0.00,,SKC,3.51,VWS V14.00,2013-05-28 10:40:00,
2013-05-28 03:42:00,52.2,37.4,29.79,NW,315,0.0,5.8,57,0.00,,SKC,3.51,VWS V14.00,2013-05-28 10:42:00,
2013-05-28 03:45:00,52.2,37.4,29.79,WNW,292,4.0,4.7,57,0.00,,SKC,3.51,VWS V14.00,2013-05-28 10:45:00,
2013-05-28 03:46:00,52.2,37.4,29.79,NW,315,4.0,4.7,57,0.00,,SKC,3.51,VWS V14.00,2013-05-28 10:46:00,
2013-05-28 03:47:00,52.2,37.4,29.79,NW,315,2.9,4.7,57,0.00,,SKC,3.51,VWS V14.00,2013-05-28 10:47:00,
2013-05-28 03:50:00,52.0,38.1,29.80,NW,315,3.4,6.3,59,0.00,,SKC,3.51,VWS V14.00,2013-05-28 10:50:00,
2013-05-28 03:51:00,52.0,38.1,29.79,NNW,338,3.8,5.6,59,0.00,,SKC,3.51,VWS V14.00,2013-05-28 10:51:00,
2013-05-28 03:52:00,52.0,38.5,29.79,NNW,338,4.7,5.6,60,0.00,,SKC,3.51,VWS V14.00,2013-05-28 10:52:00,
2013-05-28 03:53:00,52.0,38.1,29.79,NNW,338,5.6,6.0,59,0.00,,SKC,3.51,VWS V14.00,2013-05-28 10:53:00,
2013-05-28 03:55:00,52.0,38.1,29.80,NNW,338,6.3,6.5,59,0.00,,SKC,3.51,VWS V14.00,2013-05-28 10:55:00,
2013-05-28 03:56:00,52.0,37.7,29.79,NW,315,4.0,6.5,58,0.00,,SKC,3.51,VWS V14.00,2013-05-28 10:56:00,
2013-05-28 03:57:00,52.0,37.7,29.79,NW,315,5.8,6.5,58,0.00,,SKC,3.51,VWS V14.00,2013-05-28 10:57:00,
2013-05-28 03:58:00,52.0,37.7,29.79,NNW,338,6.0,6.5,58,0.00,,SKC,3.51,VWS V14.00,2013-05-28 10:58:00,
2013-05-28 04:00:00,52.0,37.7,29.80,WNW,292,6.3,8.1,58,0.00,,SKC,3.51,VWS V14.00,2013-05-28 11:00:00,
2013-05-28 04:01:00,52.2,37.8,29.79,WNW,292,5.6,8.1,58,0.00,,SKC,3.51,VWS V14.00,2013-05-28 11:01:00,
2013-05-28 04:03:00,52.0,38.1,29.79,NW,315,8.1,8.1,59,0.00,,SKC,3.51,VWS V14.00,2013-05-28 11:03:00,
2013-05-28 04:05:00,51.8,39.2,29.80,WNW,292,4.9,8.1,62,0.00,,SKC,3.51,VWS V14.00,2013-05-28 11:05:00,
2013-05-28 04:06:00,51.8,39.2,29.79,NW,315,5.8,6.3,62,0.00,,SKC,3.51,VWS V14.00,2013-05-28 11:06:00,
2013-05-28 04:08:00,51.6,39.5,29.79,NW,315,5.4,6.5,63,0.00,,SKC,3.51,VWS V14.00,2013-05-28 11:08:00,
2013-05-28 04:10:00,51.4,39.3,29.80,WNW,292,3.4,6.5,63,0.00,,SKC,3.51,VWS V14.00,2013-05-28 11:10:00,
2013-05-28 04:11:00,51.4,39.3,29.79,WNW,292,3.4,3.4,63,0.00,,SKC,3.51,VWS V14.00,2013-05-28 11:11:00,
2013-05-28 04:13:00,51.3,39.5,29.79,West,270,2.9,3.8,64,0.00,,SKC,3.51,VWS V14.00,2013-05-28 11:13:00,
2013-05-28 04:14:00,51.1,39.3,29.82,WSW,248,2.5,3.8,64,0.00,,SKC,3.51,VWS V14.00,2013-05-28 11:14:00,
2013-05-28 04:15:00,51.1,39.3,29.82,WSW,248,2.5,3.8,64,0.00,,SKC,3.51,VWS V14.00,2013-05-28 11:15:00,
2013-05-28 04:16:00,50.9,40.7,29.82,SW,225,2.9,3.1,68,0.00,,SKC,3.51,VWS V14.00,2013-05-28 11:16:00,
2013-05-28 04:18:00,50.5,41.1,29.82,SW,225,2.9,3.4,70,0.00,,SKC,3.51,VWS V14.00,2013-05-28 11:18:00,
2013-05-28 04:19:00,50.5,41.5,29.82,SSW,202,2.9,3.4,71,0.00,,SKC,3.51,VWS V14.00,2013-05-28 11:19:00,
2013-05-28 04:20:00,50.5,41.5,29.82,SSW,202,3.8,4.7,71,0.00,,SKC,3.51,VWS V14.00,2013-05-28 11:20:00,
2013-05-28 04:21:00,50.4,41.7,29.82,South,180,4.3,5.4,72,0.00,,SKC,3.51,VWS V14.00,2013-05-28 11:21:00,
2013-05-28 04:22:00,50.2,41.5,29.82,South,180,4.3,5.4,72,0.00,,SKC,3.51,VWS V14.00,2013-05-28 11:22:00,
2013-05-28 04:23:00,50.2,41.5,29.82,South,180,3.1,5.4,72,0.00,,SKC,3.51,VWS V14.00,2013-05-28 11:23:00,
2013-05-28 04:24:00,50.2,41.9,29.82,South,180,5.4,5.4,73,0.00,,SKC,3.51,VWS V14.00,2013-05-28 11:24:00,
2013-05-28 04:25:00,50.2,41.9,29.82,South,180,3.6,5.4,73,0.00,,SKC,3.51,VWS V14.00,2013-05-28 11:25:00,
2013-05-28 04:27:00,50.2,41.9,29.82,South,180,5.4,5.4,73,0.00,,SKC,3.51,VWS V14.00,2013-05-28 11:27:00,
2013-05-28 04:28:00,50.2,42.2,29.79,South,180,5.6,5.6,74,0.00,,SKC,3.51,VWS V14.00,2013-05-28 11:28:00,
2013-05-28 04:29:00,50.2,42.2,29.79,South,180,5.6,5.6,74,0.00,,SKC,3.51,VWS V14.00,2013-05-28 11:29:00,
2013-05-28 04:30:00,50.0,42.0,29.80,South,180,3.6,5.6,74,0.00,,SKC,3.51,VWS V14.00,2013-05-28 11:30:00,
2013-05-28 04:32:00,50.0,42.0,29.79,South,180,3.4,4.3,74,0.00,,SKC,3.51,VWS V14.00,2013-05-28 11:32:00,
2013-05-28 04:33:00,50.0,42.0,29.79,SSW,202,3.1,4.3,74,0.00,,SKC,3.51,VWS V14.00,2013-05-28 11:33:00,
2013-05-28 04:34:00,50.0,42.0,29.79,SSW,202,2.2,4.3,74,0.00,,SKC,3.51,VWS V14.00,2013-05-28 11:34:00,
2013-05-28 04:35:00,49.8,41.9,29.79,SSW,202,2.5,4.3,74,0.00,,SKC,3.51,VWS V14.00,2013-05-28 11:35:00,
2013-05-28 04:37:00,49.8,42.2,29.79,South,180,2.7,3.6,75,0.00,,SKC,3.51,VWS V14.00,2013-05-28 11:37:00,
2013-05-28 04:39:00,49.8,42.2,29.79,SSW,202,2.7,3.6,75,0.00,,SKC,3.51,VWS V14.00,2013-05-28 11:39:00,
2013-05-28 04:40:00,49.6,41.7,29.79,SW,225,0.0,3.6,74,0.00,,SKC,3.51,VWS V14.00,2013-05-28 11:40:00,
2013-05-28 04:42:00,49.6,41.3,29.79,SW,225,0.0,1.1,73,0.00,,SKC,3.51,VWS V14.00,2013-05-28 11:42:00,
2013-05-28 04:44:00,49.5,40.8,29.79,North,0,0.0,1.1,72,0.00,,SKC,3.51,VWS V14.00,2013-05-28 11:44:00,
2013-05-28 04:45:00,49.6,41.3,29.79,North,0,3.6,3.6,73,0.00,,SKC,3.51,VWS V14.00,2013-05-28 11:45:00,
2013-05-28 04:47:00,49.5,41.5,29.79,North,0,6.5,6.5,74,0.00,,SKC,3.51,VWS V14.00,2013-05-28 11:47:00,
2013-05-28 04:49:00,49.5,42.2,29.79,NE,45,4.0,7.8,76,0.00,,SKC,3.51,VWS V14.00,2013-05-28 11:49:00,
2013-05-28 04:50:00,49.6,42.4,29.79,SE,135,3.1,3.1,76,0.00,,SKC,3.51,VWS V14.00,2013-05-28 11:50:00,
2013-05-28 04:52:00,49.8,42.2,29.79,SE,135,2.5,3.6,75,0.00,,SKC,3.51,VWS V14.00,2013-05-28 11:52:00,
2013-05-28 04:54:00,49.8,41.9,29.79,ESE,112,2.0,3.6,74,0.00,,SKC,3.51,VWS V14.00,2013-05-28 11:54:00,
2013-05-28 04:55:00,49.8,41.9,29.79,East,90,4.3,4.3,74,0.00,,SKC,3.51,VWS V14.00,2013-05-28 11:55:00,
2013-05-28 04:57:00,50.0,40.6,29.79,South,180,4.0,6.0,70,0.00,,SKC,3.51,VWS V14.00,2013-05-28 11:57:00,
2013-05-28 04:58:00,50.2,40.4,29.79,East,90,2.7,6.0,69,0.00,,SKC,3.51,VWS V14.00,2013-05-28 11:58:00,
2013-05-28 04:59:00,50.2,40.4,29.79,East,90,2.9,6.0,69,0.00,,SKC,3.51,VWS V14.00,2013-05-28 11:59:00,
2013-05-28 05:00:00,50.2,40.4,29.79,East,90,2.7,6.0,69,0.00,,SKC,3.51,VWS V14.00,2013-05-28 12:00:00,
2013-05-28 05:02:00,50.2,40.4,29.79,NNW,338,0.0,2.7,69,0.00,,SKC,3.51,VWS V14.00,2013-05-28 12:02:00,
2013-05-28 05:03:00,49.8,39.7,29.79,NNE,22,2.0,2.7,68,0.00,,SKC,3.51,VWS V14.00,2013-05-28 12:03:00,
2013-05-28 05:04:00,49.8,39.7,29.79,ENE,68,0.0,2.7,68,0.00,,SKC,3.51,VWS V14.00,2013-05-28 12:04:00,
2013-05-28 05:05:00,49.8,39.7,29.79,SE,135,2.2,2.7,68,0.00,,SKC,3.51,VWS V14.00,2013-05-28 12:05:00,
2013-05-28 05:06:00,50.0,39.1,29.79,SE,135,1.1,2.2,66,0.00,,SKC,3.51,VWS V14.00,2013-05-28 12:06:00,
2013-05-28 05:07:00,50.0,39.1,29.79,SE,135,0.0,2.2,66,0.00,,SKC,3.51,VWS V14.00,2013-05-28 12:07:00,
2013-05-28 05:08:00,50.0,39.1,29.79,NE,45,0.0,2.2,66,0.00,,SKC,3.51,VWS V14.00,2013-05-28 12:08:00,
2013-05-28 05:09:00,49.8,38.9,29.79,ENE,68,2.7,2.9,66,0.00,,SKC,3.51,VWS V14.00,2013-05-28 12:09:00,
2013-05-28 05:10:00,49.8,38.9,29.79,NNE,22,2.2,2.9,66,0.00,,SKC,3.51,VWS V14.00,2013-05-28 12:10:00,
2013-05-28 05:11:00,49.8,38.9,29.79,NNE,22,2.2,2.9,66,0.00,,SKC,3.51,VWS V14.00,2013-05-28 12:11:00,
2013-05-28 05:12:00,49.8,38.9,29.79,NNE,22,2.7,2.7,66,0.00,,SKC,3.51,VWS V14.00,2013-05-28 12:12:00,
2013-05-28 05:13:00,49.8,38.9,29.82,NNE,22,1.1,2.7,66,0.00,,SKC,3.51,VWS V14.00,2013-05-28 12:13:00,
2013-05-28 05:15:00,49.8,38.5,29.82,NNE,22,0.0,2.7,65,0.00,,SKC,3.51,VWS V14.00,2013-05-28 12:15:00,
2013-05-28 05:16:00,49.5,38.2,29.82,NNE,22,0.0,0.0,65,0.00,,SKC,3.51,VWS V14.00,2013-05-28 12:16:00,
2013-05-28 05:17:00,49.5,37.8,29.82,NNE,22,0.0,0.0,64,0.00,,SKC,3.51,VWS V14.00,2013-05-28 12:17:00,
2013-05-28 05:18:00,49.3,38.0,29.82,NNE,22,0.0,0.0,65,0.00,,SKC,3.51,VWS V14.00,2013-05-28 12:18:00,
2013-05-28 05:20:00,49.1,37.9,29.82,NNE,22,0.0,0.0,65,0.00,,SKC,3.51,VWS V14.00,2013-05-28 12:20:00,
2013-05-28 05:23:00,49.1,37.5,29.82,NW,315,0.0,0.0,64,0.00,,SKC,3.51,VWS V14.00,2013-05-28 12:23:00,
2013-05-28 05:25:00,48.9,37.7,29.82,NW,315,0.0,0.0,65,0.00,,SKC,3.51,VWS V14.00,2013-05-28 12:25:00,
2013-05-28 05:30:00,48.7,37.5,29.82,West,270,1.1,1.1,65,0.00,,SKC,0.31,VWS V14.00,2013-05-28 12:30:00,
2013-05-28 05:35:00,49.1,39.0,29.82,SW,225,5.4,5.4,68,0.00,,SKC,0.31,VWS V14.00,2013-05-28 12:35:00,
2013-05-28 05:36:00,49.1,39.0,29.82,WSW,248,6.5,6.5,68,0.00,,SKC,0.31,VWS V14.00,2013-05-28 12:36:00,
2013-05-28 05:40:00,49.5,38.6,29.82,WSW,248,4.3,4.3,66,0.00,,SKC,0.31,VWS V14.00,2013-05-28 12:40:00,
2013-05-28 05:41:00,49.5,38.2,29.82,WSW,248,4.0,4.3,65,0.00,,SKC,0.31,VWS V14.00,2013-05-28 12:41:00,
2013-05-28 05:45:00,49.3,38.0,29.79,SW,225,5.4,5.4,65,0.00,,SKC,0.31,VWS V14.00,2013-05-28 12:45:00,
2013-05-28 05:46:00,49.3,37.6,29.79,SW,225,5.6,5.6,64,0.00,,SKC,0.31,VWS V14.00,2013-05-28 12:46:00,
2013-05-28 05:50:00,49.1,37.5,29.79,SW,225,4.7,6.3,64,0.00,,SKC,0.31,VWS V14.00,2013-05-28 12:50:00,
2013-05-28 05:51:00,49.1,37.5,29.79,WSW,248,4.0,4.7,64,0.00,,SKC,0.31,VWS V14.00,2013-05-28 12:51:00,
2013-05-28 05:55:00,49.1,37.1,29.79,WSW,248,3.4,4.9,63,0.00,,SKC,0.31,VWS V14.00,2013-05-28 12:55:00,
2013-05-28 05:56:00,49.1,37.1,29.79,SW,225,3.4,4.9,63,0.00,,SKC,0.31,VWS V14.00,2013-05-28 12:56:00,
2013-05-28 06:00:00,48.9,36.9,29.82,WSW,248,0.0,2.2,63,0.00,,SKC,0.31,VWS V14.00,2013-05-28 13:00:00,
2013-05-28 06:01:00,48.9,36.5,29.82,WSW,248,0.0,2.2,62,0.00,,SKC,0.31,VWS V14.00,2013-05-28 13:01:00,
2013-05-28 06:05:00,48.7,36.3,29.82,SW,225,0.0,2.2,62,0.00,,SKC,0.31,VWS V14.00,2013-05-28 13:05:00,
2013-05-28 06:06:00,48.7,36.3,29.82,WSW,248,0.0,0.0,62,0.00,,SKC,0.31,VWS V14.00,2013-05-28 13:06:00,
2013-05-28 06:10:00,48.7,36.7,29.82,East,90,0.0,0.0,63,0.00,,SKC,0.31,VWS V14.00,2013-05-28 13:10:00,
2013-05-28 06:11:00,48.7,36.7,29.82,East,90,0.0,0.0,63,0.00,,SKC,0.31,VWS V14.00,2013-05-28 13:11:00,
2013-05-28 06:15:00,48.7,36.7,29.82,ESE,112,0.0,0.0,63,0.00,,SKC,0.31,VWS V14.00,2013-05-28 13:15:00,
2013-05-28 06:16:00,48.7,36.7,29.82,ESE,112,0.0,0.0,63,0.00,,SKC,0.31,VWS V14.00,2013-05-28 13:16:00,
2013-05-28 06:20:00,48.6,37.0,29.80,East,90,0.0,3.4,64,0.00,,SKC,0.31,VWS V14.00,2013-05-28 13:20:00,
2013-05-28 06:21:00,48.6,37.0,29.79,NE,45,2.0,3.4,64,0.00,,SKC,0.31,VWS V14.00,2013-05-28 13:21:00,
2013-05-28 06:25:00,48.9,36.9,29.80,East,90,3.6,3.6,63,0.00,,SKC,0.31,VWS V14.00,2013-05-28 13:25:00,
2013-05-28 06:26:00,48.9,36.9,29.79,East,90,2.9,3.6,63,0.00,,SKC,0.31,VWS V14.00,2013-05-28 13:26:00,
2013-05-28 06:27:00,48.9,36.9,29.79,East,90,2.9,3.6,63,0.00,,SKC,0.31,VWS V14.00,2013-05-28 13:27:00,
2013-05-28 06:30:00,50.0,36.7,29.82,South,180,0.0,3.6,60,0.00,,SKC,0.31,VWS V14.00,2013-05-28 13:30:00,
2013-05-28 06:31:00,50.2,36.8,29.82,South,180,2.0,2.0,60,0.00,,SKC,0.31,VWS V14.00,2013-05-28 13:31:00,
2013-05-28 06:32:00,50.2,36.8,29.82,South,180,0.0,2.0,60,0.00,,SKC,0.31,VWS V14.00,2013-05-28 13:32:00,
2013-05-28 06:35:00,50.4,36.6,29.82,South,180,1.1,2.5,59,0.00,,SKC,0.31,VWS V14.00,2013-05-28 13:35:00,
2013-05-28 06:36:00,50.7,36.9,29.82,South,180,0.0,1.1,59,0.00,,SKC,0.31,VWS V14.00,2013-05-28 13:36:00,
2013-05-28 06:37:00,50.7,36.9,29.82,South,180,0.0,1.1,59,0.00,,SKC,0.31,VWS V14.00,2013-05-28 13:37:00,
2013-05-28 06:40:00,51.3,37.0,29.82,East,90,0.0,1.3,58,0.00,,SKC,0.31,VWS V14.00,2013-05-28 13:40:00,
2013-05-28 06:41:00,51.1,36.8,29.82,East,90,0.0,0.0,58,0.00,,SKC,0.31,VWS V14.00,2013-05-28 13:41:00,
2013-05-28 06:42:00,51.1,36.8,29.82,East,90,0.0,0.0,58,0.00,,SKC,0.31,VWS V14.00,2013-05-28 13:42:00,
2013-05-28 06:45:00,51.1,36.0,29.80,ESE,112,0.0,0.0,56,0.00,,SKC,0.31,VWS V14.00,2013-05-28 13:45:00,
2013-05-28 06:46:00,51.1,36.0,29.79,ESE,112,0.0,0.0,56,0.00,,SKC,0.31,VWS V14.00,2013-05-28 13:46:00,
2013-05-28 06:47:00,51.1,36.0,29.79,ESE,112,0.0,0.0,56,0.00,,SKC,0.31,VWS V14.00,2013-05-28 13:47:00,
2013-05-28 06:50:00,51.1,36.0,29.80,SW,225,0.0,2.0,56,0.00,,SKC,0.31,VWS V14.00,2013-05-28 13:50:00,
2013-05-28 06:51:00,51.1,36.0,29.79,SW,225,0.0,0.0,56,0.00,,SKC,0.31,VWS V14.00,2013-05-28 13:51:00,
2013-05-28 06:52:00,51.1,36.0,29.79,SW,225,0.0,0.0,56,0.00,,SKC,0.31,VWS V14.00,2013-05-28 13:52:00,
2013-05-28 06:53:00,51.1,36.0,29.79,SW,225,0.0,0.0,56,0.00,,SKC,0.31,VWS V14.00,2013-05-28 13:53:00,
2013-05-28 06:55:00,51.1,36.0,29.80,SW,225,2.0,2.0,56,0.00,,SKC,0.31,VWS V14.00,2013-05-28 13:55:00,
2013-05-28 06:56:00,51.3,36.1,29.79,SW,225,0.0,2.0,56,0.00,,SKC,0.31,VWS V14.00,2013-05-28 13:56:00,
2013-05-28 06:57:00,51.3,36.1,29.79,SW,225,0.0,2.0,56,0.00,,SKC,0.31,VWS V14.00,2013-05-28 13:57:00,
2013-05-28 06:58:00,51.3,36.1,29.82,SW,225,0.9,2.0,56,0.00,,SKC,0.31,VWS V14.00,2013-05-28 13:58:00,
2013-05-28 07:00:00,51.3,36.1,29.82,SW,225,2.0,2.5,56,0.00,,SKC,0.31,VWS V14.00,2013-05-28 14:00:00,
2013-05-28 07:01:00,51.3,36.1,29.82,SSW,202,2.7,2.7,56,0.00,,SKC,0.31,VWS V14.00,2013-05-28 14:01:00,
2013-05-28 07:02:00,51.3,36.1,29.82,SSW,202,2.7,2.7,56,0.00,,SKC,0.31,VWS V14.00,2013-05-28 14:02:00,
2013-05-28 07:03:00,51.6,35.5,29.82,WNW,292,4.9,4.9,54,0.00,,SKC,0.31,VWS V14.00,2013-05-28 14:03:00,
2013-05-28 07:05:00,51.6,35.1,29.82,WNW,292,7.8,7.8,53,0.00,,SKC,0.31,VWS V14.00,2013-05-28 14:05:00,
2013-05-28 07:07:00,51.8,34.3,29.82,WNW,292,3.4,7.8,51,0.00,,SKC,0.31,VWS V14.00,2013-05-28 14:07:00,
2013-05-28 07:08:00,51.8,34.3,29.82,WNW,292,5.8,7.8,51,0.00,,SKC,0.31,VWS V14.00,2013-05-28 14:08:00,
2013-05-28 07:10:00,52.0,34.4,29.82,WNW,292,4.0,7.8,51,0.00,,SKC,0.31,VWS V14.00,2013-05-28 14:10:00,
2013-05-28 07:12:00,52.0,34.4,29.82,WNW,292,1.3,5.6,51,0.00,,SKC,0.31,VWS V14.00,2013-05-28 14:12:00,
2013-05-28 07:13:00,52.0,34.4,29.82,WNW,292,1.3,5.6,51,0.00,,SKC,0.31,VWS V14.00,2013-05-28 14:13:00,
2013-05-28 07:15:00,52.3,34.8,29.82,NW,315,4.9,5.6,51,0.00,,SKC,0.31,VWS V14.00,2013-05-28 14:15:00,
2013-05-28 07:17:00,52.3,34.3,29.82,WNW,292,3.4,4.9,50,0.00,,SKC,0.31,VWS V14.00,2013-05-28 14:17:00,
2013-05-28 07:18:00,52.5,34.4,29.82,NNW,338,0.0,4.9,50,0.00,,SKC,0.31,VWS V14.00,2013-05-28 14:18:00,
2013-05-28 07:20:00,53.4,35.3,29.82,WNW,292,3.1,4.9,50,0.00,,SKC,0.31,VWS V14.00,2013-05-28 14:20:00,
2013-05-28 07:22:00,55.0,35.2,29.82,NNW,338,5.4,5.4,47,0.00,,SKC,0.31,VWS V14.00,2013-05-28 14:22:00,
2013-05-28 07:23:00,55.0,35.2,29.82,NNW,338,6.5,6.5,47,0.00,,SKC,0.31,VWS V14.00,2013-05-28 14:23:00,
2013-05-28 07:24:00,55.0,34.7,29.82,NNW,338,7.4,7.8,46,0.00,,SKC,0.31,VWS V14.00,2013-05-28 14:24:00,
2013-05-28 07:25:00,55.0,34.1,29.82,WNW,292,4.9,7.8,45,0.00,,SKC,0.31,VWS V14.00,2013-05-28 14:25:00,
2013-05-28 07:27:00,55.0,34.1,29.82,WNW,292,6.3,6.3,45,0.00,,SKC,0.31,VWS V14.00,2013-05-28 14:27:00,
2013-05-28 07:28:00,55.0,34.1,29.82,WNW,292,6.3,6.3,45,0.00,,SKC,0.31,VWS V14.00,2013-05-28 14:28:00,
2013-05-28 07:29:00,55.0,34.1,29.82,WNW,292,4.9,6.5,45,0.00,,SKC,0.31,VWS V14.00,2013-05-28 14:29:00,
2013-05-28 07:32:00,55.0,33.5,29.82,NW,315,4.9,6.5,44,0.00,,SKC,0.31,VWS V14.00,2013-05-28 14:32:00,
2013-05-28 07:33:00,55.0,33.5,29.82,NW,315,6.0,6.5,44,0.00,,SKC,0.31,VWS V14.00,2013-05-28 14:33:00,
2013-05-28 07:34:00,55.0,33.0,29.82,NW,315,5.4,6.5,43,0.00,,SKC,0.31,VWS V14.00,2013-05-28 14:34:00,
2013-05-28 07:35:00,55.0,33.0,29.82,WNW,292,5.4,6.5,43,0.00,,SKC,0.31,VWS V14.00,2013-05-28 14:35:00,
2013-05-28 07:37:00,54.9,32.8,29.82,WNW,292,3.8,5.8,43,0.00,,SKC,0.31,VWS V14.00,2013-05-28 14:37:00,
2013-05-28 07:38:00,54.9,32.8,29.82,WNW,292,4.3,5.8,43,0.00,,SKC,0.31,VWS V14.00,2013-05-28 14:38:00,
2013-05-28 07:39:00,54.9,32.8,29.82,WNW,292,2.5,5.8,43,0.00,,SKC,0.31,VWS V14.00,2013-05-28 14:39:00,
2013-05-28 07:40:00,54.9,33.4,29.82,NW,315,1.6,5.8,44,0.00,,SKC,0.31,VWS V14.00,2013-05-28 14:40:00,
2013-05-28 07:42:00,54.9,33.4,29.82,WNW,292,2.9,3.8,44,0.00,,SKC,0.31,VWS V14.00,2013-05-28 14:42:00,
2013-05-28 07:43:00,54.9,33.4,29.82,WNW,292,2.9,3.8,44,0.00,,SKC,0.31,VWS V14.00,2013-05-28 14:43:00,
2013-05-28 07:44:00,54.7,33.2,29.82,WNW,292,3.1,4.7,44,0.00,,SKC,0.31,VWS V14.00,2013-05-28 14:44:00,
2013-05-28 07:45:00,54.7,33.2,29.82,NW,315,3.6,4.7,44,0.00,,SKC,0.31,VWS V14.00,2013-05-28 14:45:00,
2013-05-28 07:48:00,54.7,33.2,29.82,NNW,338,4.9,4.9,44,0.00,,SKC,0.31,VWS V14.00,2013-05-28 14:48:00,
2013-05-28 07:49:00,54.7,33.2,29.82,NNW,338,4.0,4.9,44,0.00,,SKC,0.31,VWS V14.00,2013-05-28 14:49:00,
2013-05-28 07:50:00,54.7,32.1,29.82,NW,315,3.4,4.9,42,0.00,,SKC,0.31,VWS V14.00,2013-05-28 14:50:00,
2013-05-28 07:53:00,54.7,32.6,29.82,NW,315,1.3,3.6,43,0.00,,SKC,0.31,VWS V14.00,2013-05-28 14:53:00,
2013-05-28 07:54:00,54.7,32.6,29.82,NW,315,2.0,3.6,43,0.00,,SKC,0.31,VWS V14.00,2013-05-28 14:54:00,
2013-05-28 07:55:00,54.7,32.6,29.82,NW,315,2.0,3.6,43,0.00,,SKC,0.31,VWS V14.00,2013-05-28 14:55:00,
2013-05-28 07:58:00,54.7,32.6,29.82,NW,315,2.5,4.3,43,0.00,,SKC,0.31,VWS V14.00,2013-05-28 14:58:00,
2013-05-28 07:59:00,54.5,31.9,29.82,NNW,338,1.3,4.3,42,0.00,,SKC,0.31,VWS V14.00,2013-05-28 14:59:00,
2013-05-28 08:00:00,54.5,31.9,29.82,WNW,292,0.0,4.3,42,0.00,,SKC,0.31,VWS V14.00,2013-05-28 15:00:00,
2013-05-28 08:03:00,54.5,30.7,29.82,WNW,292,9.8,9.8,40,0.00,,SKC,0.31,VWS V14.00,2013-05-28 15:03:00,
2013-05-28 08:04:00,54.5,30.7,29.82,NW,315,8.1,9.8,40,0.00,,SKC,0.31,VWS V14.00,2013-05-28 15:04:00,
2013-05-28 08:05:00,54.5,30.7,29.82,NW,315,8.1,9.8,40,0.00,,SKC,0.31,VWS V14.00,2013-05-28 15:05:00,
2013-05-28 08:08:00,54.9,29.8,29.82,West,270,6.9,8.5,38,0.00,,SKC,0.31,VWS V14.00,2013-05-28 15:08:00,
2013-05-28 08:09:00,54.9,29.8,29.82,West,270,5.4,8.5,38,0.00,,SKC,0.31,VWS V14.00,2013-05-28 15:09:00,
2013-05-28 08:10:00,54.9,29.8,29.82,West,270,5.4,8.5,38,0.00,,SKC,0.31,VWS V14.00,2013-05-28 15:10:00,
2013-05-28 08:13:00,55.0,29.9,29.82,West,270,10.3,12.1,38,0.00,,SKC,0.31,VWS V14.00,2013-05-28 15:13:00,
2013-05-28 08:14:00,55.0,29.9,29.82,WNW,292,8.5,12.1,38,0.00,,SKC,0.31,VWS V14.00,2013-05-28 15:14:00,
2013-05-28 08:15:00,55.0,29.3,29.82,WNW,292,8.7,12.1,37,0.00,,SKC,0.31,VWS V14.00,2013-05-28 15:15:00,
2013-05-28 08:18:00,55.4,29.6,29.82,WSW,248,8.7,11.2,37,0.00,,SKC,0.31,VWS V14.00,2013-05-28 15:18:00,
2013-05-28 08:19:00,55.4,29.6,29.82,WSW,248,8.7,11.2,37,0.00,,SKC,0.31,VWS V14.00,2013-05-28 15:19:00,
2013-05-28 08:20:00,55.4,29.6,29.82,WSW,248,8.7,11.2,37,0.00,,SKC,0.31,VWS V14.00,2013-05-28 15:20:00,
2013-05-28 08:23:00,55.8,29.2,29.82,WNW,292,7.8,12.1,36,0.00,,SKC,0.31,VWS V14.00,2013-05-28 15:23:00,
2013-05-28 08:24:00,55.9,29.4,29.82,NNW,338,9.2,12.1,36,0.00,,SKC,0.31,VWS V14.00,2013-05-28 15:24:00,
2013-05-28 08:25:00,55.9,29.4,29.82,WNW,292,10.1,12.1,36,0.00,,SKC,0.31,VWS V14.00,2013-05-28 15:25:00,
2013-05-28 08:28:00,57.0,29.7,29.82,WNW,292,10.3,15.4,35,0.00,,SKC,0.31,VWS V14.00,2013-05-28 15:28:00,
2013-05-28 08:29:00,57.0,29.7,29.82,WNW,292,10.3,15.4,35,0.00,,SKC,0.31,VWS V14.00,2013-05-28 15:29:00,
2013-05-28 08:30:00,57.0,29.7,29.82,WNW,292,7.6,15.4,35,0.00,,SKC,0.31,VWS V14.00,2013-05-28 15:30:00,
2013-05-28 08:34:00,57.6,29.4,29.82,WNW,292,10.1,13.2,34,0.00,,SKC,0.31,VWS V14.00,2013-05-28 15:34:00,
2013-05-28 08:35:00,57.6,29.4,29.82,WSW,248,6.5,13.2,34,0.00,,SKC,0.31,VWS V14.00,2013-05-28 15:35:00,
2013-05-28 08:39:00,57.2,26.9,29.82,WNW,292,7.4,14.8,31,0.00,,SKC,0.31,VWS V14.00,2013-05-28 15:39:00,
2013-05-28 08:40:00,57.2,26.9,29.82,WNW,292,6.7,14.8,31,0.00,,SKC,0.31,VWS V14.00,2013-05-28 15:40:00,
2013-05-28 08:44:00,57.2,27.6,29.82,NW,315,5.4,14.5,32,0.00,,SKC,0.31,VWS V14.00,2013-05-28 15:44:00,
2013-05-28 08:45:00,57.2,27.6,29.82,NNW,338,8.1,14.5,32,0.00,,SKC,0.31,VWS V14.00,2013-05-28 15:45:00,
2013-05-28 08:49:00,57.2,29.8,29.82,NNE,22,2.7,8.7,35,0.00,,SKC,0.31,VWS V14.00,2013-05-28 15:49:00,
2013-05-28 08:50:00,57.2,29.8,29.82,North,0,4.7,4.7,35,0.00,,SKC,0.31,VWS V14.00,2013-05-28 15:50:00,
2013-05-28 08:51:00,57.2,29.8,29.82,North,0,2.7,5.4,35,0.00,,SKC,0.31,VWS V14.00,2013-05-28 15:51:00,
2013-05-28 08:54:00,57.2,29.8,29.82,NE,45,4.0,5.4,35,0.00,,SKC,0.31,VWS V14.00,2013-05-28 15:54:00,
2013-05-28 08:55:00,57.2,29.8,29.82,NNW,338,1.6,5.4,35,0.00,,SKC,0.31,VWS V14.00,2013-05-28 15:55:00,
2013-05-28 08:56:00,57.0,30.4,29.82,NNE,22,4.3,4.3,36,0.00,,SKC,0.31,VWS V14.00,2013-05-28 15:56:00,
2013-05-28 08:58:00,57.2,29.8,29.85,North,0,4.0,4.3,35,0.00,,SKC,0.31,VWS V14.00,2013-05-28 15:58:00,
2013-05-28 08:59:00,57.2,29.8,29.85,North,0,5.8,5.8,35,0.00,,SKC,0.31,VWS V14.00,2013-05-28 15:59:00,
2013-05-28 09:00:00,57.2,29.8,29.85,NNE,22,6.5,6.5,35,0.00,,SKC,0.31,VWS V14.00,2013-05-28 16:00:00,
2013-05-28 09:03:00,57.4,30.0,29.85,WNW,292,1.1,6.7,35,0.00,,SKC,0.31,VWS V14.00,2013-05-28 16:03:00,
2013-05-28 09:04:00,57.6,30.1,29.85,NNW,338,6.7,6.7,35,0.00,,SKC,0.31,VWS V14.00,2013-05-28 16:04:00,
2013-05-28 09:05:00,57.6,30.1,29.85,NNW,338,6.0,6.7,35,0.00,,SKC,0.31,VWS V14.00,2013-05-28 16:05:00,
2013-05-28 09:09:00,58.1,29.2,29.85,NNW,338,6.5,9.6,33,0.00,,SKC,0.31,VWS V14.00,2013-05-28 16:09:00,
2013-05-28 09:10:00,58.1,29.2,29.85,NW,315,5.6,5.6,33,0.00,,SKC,0.31,VWS V14.00,2013-05-28 16:10:00,
2013-05-28 09:14:00,58.3,29.3,29.85,WNW,292,7.4,8.1,33,0.00,,SKC,0.31,VWS V14.00,2013-05-28 16:14:00,
2013-05-28 09:15:00,58.5,28.7,29.85,NW,315,6.0,8.5,32,0.00,,SKC,0.31,VWS V14.00,2013-05-28 16:15:00,
2013-05-28 09:16:00,58.5,28.7,29.85,NNW,338,7.4,7.4,32,0.00,,SKC,0.31,VWS V14.00,2013-05-28 16:16:00,
2013-05-28 09:19:00,58.6,28.1,29.85,NW,315,13.9,13.9,31,0.00,,SKC,0.31,VWS V14.00,2013-05-28 16:19:00,
2013-05-28 09:20:00,58.6,27.3,29.85,NW,315,7.4,7.4,30,0.00,,SKC,0.31,VWS V14.00,2013-05-28 16:20:00,
2013-05-28 09:21:00,58.8,27.5,29.85,NW,315,6.0,9.6,30,0.00,,SKC,0.31,VWS V14.00,2013-05-28 16:21:00,
2013-05-28 09:24:00,59.2,28.6,29.85,WNW,292,7.2,13.2,31,0.00,,SKC,0.31,VWS V14.00,2013-05-28 16:24:00,
2013-05-28 09:25:00,59.4,27.9,29.85,WNW,292,8.7,8.7,30,0.00,,SKC,0.31,VWS V14.00,2013-05-28 16:25:00,
2013-05-28 09:26:00,59.4,27.1,29.85,WNW,292,6.0,8.7,29,0.00,,SKC,0.31,VWS V14.00,2013-05-28 16:26:00,
2013-05-28 09:29:00,59.5,28.1,29.85,WNW,292,5.4,12.1,30,0.00,,SKC,0.31,VWS V14.00,2013-05-28 16:29:00,
2013-05-28 09:30:00,59.5,28.1,29.85,WNW,292,8.5,8.7,30,0.00,,SKC,0.31,VWS V14.00,2013-05-28 16:30:00,
2013-05-28 09:31:00,59.5,28.1,29.85,WNW,292,6.0,8.7,30,0.00,,SKC,0.31,VWS V14.00,2013-05-28 16:31:00,
2013-05-28 09:34:00,59.4,27.1,29.85,NNW,338,9.8,13.4,29,0.00,,SKC,0.31,VWS V14.00,2013-05-28 16:34:00,
2013-05-28 09:35:00,59.4,27.1,29.85,NW,315,7.8,8.7,29,0.00,,SKC,0.31,VWS V14.00,2013-05-28 16:35:00,
2013-05-28 09:36:00,59.4,27.1,29.85,WNW,292,10.1,11.0,29,0.00,,SKC,0.31,VWS V14.00,2013-05-28 16:36:00,
2013-05-28 09:39:00,59.2,27.0,29.85,NNW,338,7.8,12.5,29,0.00,,SKC,0.31,VWS V14.00,2013-05-28 16:39:00,
2013-05-28 09:40:00,59.2,26.1,29.85,NW,315,11.0,12.5,28,0.00,,SKC,0.31,VWS V14.00,2013-05-28 16:40:00,
2013-05-28 09:41:00,59.2,26.1,29.85,NNW,338,5.6,8.7,28,0.00,,SKC,0.31,VWS V14.00,2013-05-28 16:41:00,
2013-05-28 09:44:00,59.2,26.1,29.85,NNW,338,7.4,11.0,28,0.00,,SKC,0.31,VWS V14.00,2013-05-28 16:44:00,
2013-05-28 09:45:00,59.2,26.1,29.85,NNW,338,6.3,11.0,28,0.00,,SKC,0.31,VWS V14.00,2013-05-28 16:45:00,
2013-05-28 09:46:00,59.4,26.3,29.85,NNW,338,8.7,8.7,28,0.00,,SKC,0.31,VWS V14.00,2013-05-28 16:46:00,
2013-05-28 09:47:00,59.2,26.1,29.85,NNW,338,8.5,14.3,28,0.00,,SKC,0.31,VWS V14.00,2013-05-28 16:47:00,
2013-05-28 09:50:00,59.0,26.0,29.85,NNW,338,7.8,14.3,28,0.00,,SKC,0.31,VWS V14.00,2013-05-28 16:50:00,
2013-05-28 09:51:00,59.0,26.0,29.85,NNW,338,12.5,12.5,28,0.00,,SKC,0.31,VWS V14.00,2013-05-28 16:51:00,
2013-05-28 09:52:00,59.0,26.0,29.85,NW,315,8.1,12.5,28,0.00,,SKC,0.31,VWS V14.00,2013-05-28 16:52:00,
2013-05-28 09:55:00,58.8,26.6,29.85,West,270,7.8,12.5,29,0.00,,SKC,0.31,VWS V14.00,2013-05-28 16:55:00,
2013-05-28 09:56:00,58.8,26.6,29.85,WNW,292,11.0,12.3,29,0.00,,SKC,0.31,VWS V14.00,2013-05-28 16:56:00,
2013-05-28 09:57:00,58.8,26.6,29.85,North,0,7.6,12.8,29,0.00,,SKC,0.31,VWS V14.00,2013-05-28 16:57:00,
2013-05-28 10:00:00,58.8,26.6,29.82,North,0,6.3,6.3,29,0.00,,SKC,0.31,VWS V14.00,2013-05-28 17:00:00,
2013-05-28 10:01:00,58.8,26.6,29.82,NW,315,11.9,11.9,29,0.00,,SKC,0.31,VWS V14.00,2013-05-28 17:01:00,
2013-05-28 10:02:00,58.8,26.6,29.82,NNW,338,6.3,11.9,29,0.00,,SKC,0.31,VWS V14.00,2013-05-28 17:02:00,
2013-05-28 10:05:00,58.6,26.5,29.82,North,0,10.5,10.5,29,0.00,,SKC,0.31,VWS V14.00,2013-05-28 17:05:00,
2013-05-28 10:06:00,58.6,26.5,29.82,North,0,10.5,10.5,29,0.00,,SKC,0.31,VWS V14.00,2013-05-28 17:06:00,
2013-05-28 10:07:00,58.6,26.5,29.82,North,0,10.5,10.5,29,0.00,,SKC,0.31,VWS V14.00,2013-05-28 17:07:00,
2013-05-28 10:10:00,58.8,26.6,29.82,NNW,338,6.0,11.0,29,0.00,,SKC,0.31,VWS V14.00,2013-05-28 17:10:00,
2013-05-28 10:11:00,58.8,26.6,29.82,NNW,338,6.3,6.3,29,0.00,,SKC,0.31,VWS V14.00,2013-05-28 17:11:00,
2013-05-28 10:12:00,58.8,26.6,29.82,NNW,338,6.3,6.3,29,0.00,,SKC,0.31,VWS V14.00,2013-05-28 17:12:00,
2013-05-28 10:15:00,58.8,26.6,29.82,NNW,338,5.6,6.3,29,0.00,,SKC,0.31,VWS V14.00,2013-05-28 17:15:00,
2013-05-28 10:16:00,58.8,25.8,29.85,NNW,338,8.1,10.7,28,0.00,,SKC,0.31,VWS V14.00,2013-05-28 17:16:00,
2013-05-28 10:17:00,58.8,25.8,29.85,NNW,338,8.1,10.7,28,0.00,,SKC,0.31,VWS V14.00,2013-05-28 17:17:00,
2013-05-28 10:20:00,59.0,25.1,29.85,NNW,338,8.7,8.7,27,0.00,,SKC,0.31,VWS V14.00,2013-05-28 17:20:00,
2013-05-28 10:21:00,59.0,25.1,29.85,NNE,22,7.8,9.6,27,0.00,,SKC,0.31,VWS V14.00,2013-05-28 17:21:00,
2013-05-28 10:22:00,59.2,26.1,29.85,NNW,338,8.7,9.6,28,0.00,,SKC,0.31,VWS V14.00,2013-05-28 17:22:00,
2013-05-28 10:25:00,59.7,25.7,29.85,NNW,338,9.2,10.1,27,0.00,,SKC,0.31,VWS V14.00,2013-05-28 17:25:00,
2013-05-28 10:26:00,59.7,25.7,29.85,NNW,338,10.1,11.4,27,0.00,,SKC,0.31,VWS V14.00,2013-05-28 17:26:00,
2013-05-28 10:27:00,59.7,24.8,29.85,NNW,338,12.3,13.0,26,0.00,,SKC,0.31,VWS V14.00,2013-05-28 17:27:00,
2013-05-28 10:30:00,59.7,24.8,29.85,North,0,7.6,13.0,26,0.00,,SKC,0.31,VWS V14.00,2013-05-28 17:30:00,
2013-05-28 10:31:00,60.1,26.0,29.85,NNW,338,10.5,13.0,27,0.00,,SKC,0.31,VWS V14.00,2013-05-28 17:31:00,
2013-05-28 10:32:00,60.1,26.0,29.85,NNW,338,8.5,13.0,27,0.00,,SKC,0.31,VWS V14.00,2013-05-28 17:32:00,
2013-05-28 10:35:00,61.0,25.9,29.85,NW,315,7.8,7.8,26,0.00,,SKC,0.31,VWS V14.00,2013-05-28 17:35:00,
2013-05-28 10:36:00,60.8,25.7,29.85,NW,315,7.8,12.3,26,0.00,,SKC,0.31,VWS V14.00,2013-05-28 17:36:00,
2013-05-28 10:37:00,60.8,25.7,29.85,WNW,292,7.6,12.3,26,0.00,,SKC,0.31,VWS V14.00,2013-05-28 17:37:00,
2013-05-28 10:38:00,60.8,25.7,29.85,NNW,338,6.5,12.3,26,0.00,,SKC,0.31,VWS V14.00,2013-05-28 17:38:00,
2013-05-28 10:40:00,61.3,26.2,29.85,North,0,8.1,12.3,26,0.00,,SKC,0.31,VWS V14.00,2013-05-28 17:40:00,
2013-05-28 10:42:00,61.3,25.2,29.85,NNW,338,9.2,12.1,25,0.00,,SKC,0.31,VWS V14.00,2013-05-28 17:42:00,
2013-05-28 10:43:00,61.3,25.2,29.85,NNW,338,9.2,12.1,25,0.00,,SKC,0.31,VWS V14.00,2013-05-28 17:43:00,
2013-05-28 10:45:00,61.9,25.7,29.85,NW,315,6.3,12.1,25,0.00,,SKC,0.31,VWS V14.00,2013-05-28 17:45:00,
2013-05-28 10:46:00,62.8,26.5,29.85,NNW,338,6.0,8.1,25,0.00,,SKC,0.31,VWS V14.00,2013-05-28 17:46:00,
2013-05-28 10:47:00,62.8,26.5,29.85,NNW,338,5.8,8.1,25,0.00,,SKC,0.31,VWS V14.00,2013-05-28 17:47:00,
2013-05-28 10:48:00,62.6,25.3,29.85,NNW,338,7.6,10.7,24,0.00,,SKC,0.31,VWS V14.00,2013-05-28 17:48:00,
2013-05-28 10:51:00,62.6,25.3,29.85,North,0,10.1,10.7,24,0.00,,SKC,0.31,VWS V14.00,2013-05-28 17:51:00,
2013-05-28 10:52:00,61.9,25.7,29.85,North,0,6.5,10.7,25,0.00,,SKC,0.31,VWS V14.00,2013-05-28 17:52:00,
2013-05-28 10:53:00,61.9,25.7,29.85,NW,315,7.4,10.7,25,0.00,,SKC,0.31,VWS V14.00,2013-05-28 17:53:00,
2013-05-28 10:55:00,62.1,25.9,29.85,NW,315,4.9,10.7,25,0.00,,SKC,0.31,VWS V14.00,2013-05-28 17:55:00,
2013-05-28 10:56:00,62.1,25.9,29.85,NW,315,7.6,10.3,25,0.00,,SKC,0.31,VWS V14.00,2013-05-28 17:56:00,
2013-05-28 10:57:00,62.1,25.9,29.85,WNW,292,7.6,10.3,25,0.00,,SKC,0.31,VWS V14.00,2013-05-28 17:57:00,
2013-05-28 10:58:00,62.1,25.9,29.85,NW,315,11.0,11.0,25,0.00,,SKC,0.31,VWS V14.00,2013-05-28 17:58:00,
2013-05-28 11:00:00,62.4,26.2,29.85,NNW,338,9.0,11.0,25,0.00,,SKC,0.31,VWS V14.00,2013-05-28 18:00:00,
2013-05-28 11:01:00,63.1,25.8,29.85,North,0,7.6,9.0,24,0.00,,SKC,0.31,VWS V14.00,2013-05-28 18:01:00,
2013-05-28 11:02:00,63.9,26.4,29.85,NW,315,10.1,10.1,24,0.00,,SKC,0.31,VWS V14.00,2013-05-28 18:02:00,
2013-05-28 11:03:00,65.1,26.4,29.85,NNW,338,7.2,10.1,23,0.00,,SKC,0.31,VWS V14.00,2013-05-28 18:03:00,
2013-05-28 11:05:00,65.1,26.4,29.85,NNW,338,7.8,11.0,23,0.00,,SKC,0.31,VWS V14.00,2013-05-28 18:05:00,
2013-05-28 11:06:00,64.9,26.3,29.85,NNW,338,8.7,10.3,23,0.00,,SKC,0.31,VWS V14.00,2013-05-28 18:06:00,
2013-05-28 11:07:00,64.9,26.3,29.85,NNW,338,8.7,10.3,23,0.00,,SKC,0.31,VWS V14.00,2013-05-28 18:07:00,
2013-05-28 11:08:00,64.9,26.3,29.85,NNW,338,12.5,12.5,23,0.00,,SKC,0.31,VWS V14.00,2013-05-28 18:08:00,
2013-05-28 11:10:00,63.9,26.4,29.85,NNW,338,8.7,13.9,24,0.00,,SKC,0.31,VWS V14.00,2013-05-28 18:10:00,
2013-05-28 11:11:00,63.9,26.4,29.85,NNW,338,7.6,8.7,24,0.00,,SKC,0.31,VWS V14.00,2013-05-28 18:11:00,
2013-05-28 11:12:00,63.9,26.4,29.85,NNW,338,7.4,8.7,24,0.00,,SKC,0.31,VWS V14.00,2013-05-28 18:12:00,
2013-05-28 11:13:00,63.9,26.4,29.85,NNW,338,7.4,8.7,24,0.00,,SKC,0.31,VWS V14.00,2013-05-28 18:13:00,
2013-05-28 11:15:00,63.0,25.6,29.85,WNW,292,5.8,11.4,24,0.00,,SKC,0.31,VWS V14.00,2013-05-28 18:15:00,
2013-05-28 11:17:00,63.5,26.1,29.85,North,0,6.3,10.5,24,0.00,,SKC,0.31,VWS V14.00,2013-05-28 18:17:00,
2013-05-28 11:18:00,63.5,26.1,29.85,NNW,338,4.9,10.5,24,0.00,,SKC,0.31,VWS V14.00,2013-05-28 18:18:00,
2013-05-28 11:20:00,64.8,26.1,29.85,North,0,7.4,11.4,23,0.00,,SKC,0.31,VWS V14.00,2013-05-28 18:20:00,
2013-05-28 11:22:00,64.6,26.0,29.85,NNW,338,8.5,10.7,23,0.00,,SKC,0.31,VWS V14.00,2013-05-28 18:22:00,
2013-05-28 11:23:00,66.0,27.2,29.85,North,0,5.6,10.7,23,0.00,,SKC,0.31,VWS V14.00,2013-05-28 18:23:00,
2013-05-28 11:27:00,65.7,26.9,29.85,WNW,292,12.5,14.5,23,0.00,,SKC,0.31,VWS V14.00,2013-05-28 18:27:00,
2013-05-28 11:28:00,65.7,26.9,29.85,NNW,338,12.1,14.5,23,0.00,,SKC,0.31,VWS V14.00,2013-05-28 18:28:00,
2013-05-28 11:29:00,65.7,26.9,29.85,NNW,338,12.1,14.5,23,0.00,,SKC,0.31,VWS V14.00,2013-05-28 18:29:00,
2013-05-28 11:30:00,65.7,26.9,29.85,WNW,292,8.7,14.5,23,0.00,,SKC,0.31,VWS V14.00,2013-05-28 18:30:00,
2013-05-28 11:33:00,67.5,27.3,29.85,NNW,338,8.7,13.9,22,0.00,,SKC,0.31,VWS V14.00,2013-05-28 18:33:00,
2013-05-28 11:34:00,67.3,27.2,29.85,NNW,338,7.6,13.9,22,0.00,,SKC,0.31,VWS V14.00,2013-05-28 18:34:00,
2013-05-28 11:35:00,67.5,25.0,29.85,NNW,338,6.3,13.9,20,0.00,,SKC,0.31,VWS V14.00,2013-05-28 18:35:00,
2013-05-28 11:38:00,67.5,25.0,29.85,NNW,338,12.1,13.0,20,0.00,,SKC,0.31,VWS V14.00,2013-05-28 18:38:00,
2013-05-28 11:39:00,68.0,25.5,29.85,NW,315,7.8,13.0,20,0.00,,SKC,0.31,VWS V14.00,2013-05-28 18:39:00,
2013-05-28 11:40:00,68.4,25.8,29.85,North,0,8.5,13.0,20,0.00,,SKC,0.31,VWS V14.00,2013-05-28 18:40:00,
2013-05-28 11:43:00,68.9,26.2,29.85,NNW,338,5.6,8.5,20,0.00,,SKC,0.31,VWS V14.00,2013-05-28 18:43:00,
2013-05-28 11:44:00,68.9,26.2,29.85,NW,315,8.5,10.7,20,0.00,,SKC,0.31,VWS V14.00,2013-05-28 18:44:00,
2013-05-28 11:45:00,68.9,26.2,29.85,NW,315,8.5,10.7,20,0.00,,SKC,0.31,VWS V14.00,2013-05-28 18:45:00,
2013-05-28 11:48:00,67.5,25.0,29.85,NNW,338,6.7,10.3,20,0.00,,SKC,0.31,VWS V14.00,2013-05-28 18:48:00,
2013-05-28 11:49:00,67.5,25.0,29.85,NNW,338,7.6,10.3,20,0.00,,SKC,0.31,VWS V14.00,2013-05-28 18:49:00,
2013-05-28 11:50:00,66.6,24.3,29.85,North,0,6.0,10.3,20,0.00,,SKC,0.31,VWS V14.00,2013-05-28 18:50:00,
2013-05-28 11:53:00,66.6,24.3,29.85,North,0,4.7,8.7,20,0.00,,SKC,0.31,VWS V14.00,2013-05-28 18:53:00,
2013-05-28 11:54:00,68.0,25.5,29.85,North,0,4.9,8.7,20,0.00,,SKC,0.31,VWS V14.00,2013-05-28 18:54:00,
2013-05-28 11:55:00,69.1,26.4,29.85,NNE,22,8.5,8.7,20,0.00,,SKC,0.31,VWS V14.00,2013-05-28 18:55:00,
2013-05-28 11:58:00,69.1,26.4,29.85,NNW,338,4.5,11.0,20,0.00,,SKC,0.31,VWS V14.00,2013-05-28 18:58:00,
2013-05-28 11:59:00,69.1,26.4,29.85,NNW,338,4.5,11.0,20,0.00,,SKC,0.31,VWS V14.00,2013-05-28 18:59:00,
2013-05-28 12:00:00,68.7,26.1,29.85,NW,315,8.5,11.0,20,0.00,,SKC,0.31,VWS V14.00,2013-05-28 19:00:00,
2013-05-28 12:03:00,69.1,26.4,29.85,NNE,22,10.7,10.7,20,0.00,,SKC,0.31,VWS V14.00,2013-05-28 19:03:00,
2013-05-28 12:04:00,68.9,26.2,29.85,NW,315,9.2,10.7,20,0.00,,SKC,0.31,VWS V14.00,2013-05-28 19:04:00,
2013-05-28 12:05:00,68.4,25.8,29.85,NNW,338,10.7,17.0,20,0.00,,SKC,0.31,VWS V14.00,2013-05-28 19:05:00,
2013-05-28 12:08:00,68.2,25.6,29.85,North,0,8.1,17.0,20,0.00,,SKC,0.31,VWS V14.00,2013-05-28 19:08:00,
2013-05-28 12:09:00,68.2,25.6,29.85,North,0,8.1,17.0,20,0.00,,SKC,0.31,VWS V14.00,2013-05-28 19:09:00,
2013-05-28 12:10:00,68.2,25.6,29.85,NNW,338,12.8,17.0,20,0.00,,SKC,0.31,VWS V14.00,2013-05-28 19:10:00,
2013-05-28 12:13:00,70.2,29.6,29.85,NNE,22,7.2,12.8,22,0.00,,SKC,0.31,VWS V14.00,2013-05-28 19:13:00,
2013-05-28 12:14:00,70.2,29.6,29.85,North,0,5.8,12.8,22,0.00,,SKC,0.31,VWS V14.00,2013-05-28 19:14:00,
2013-05-28 12:15:00,70.0,25.9,29.85,North,0,9.8,12.8,19,0.00,,SKC,0.31,VWS V14.00,2013-05-28 19:15:00,
2013-05-28 12:16:00,70.7,26.5,29.85,North,0,7.6,10.5,19,0.00,,SKC,0.31,VWS V14.00,2013-05-28 19:16:00,
2013-05-28 12:19:00,68.7,26.1,29.85,North,0,12.5,17.5,20,0.00,,SKC,0.31,VWS V14.00,2013-05-28 19:19:00,
2013-05-28 12:20:00,68.7,26.1,29.85,North,0,10.3,17.5,20,0.00,,SKC,0.31,VWS V14.00,2013-05-28 19:20:00,
2013-05-28 12:21:00,69.8,25.7,29.85,North,0,10.7,10.7,19,0.00,,SKC,0.31,VWS V14.00,2013-05-28 19:21:00,
2013-05-28 12:24:00,68.2,25.6,29.85,North,0,3.6,13.9,20,0.00,,SKC,0.31,VWS V14.00,2013-05-28 19:24:00,
2013-05-28 12:25:00,68.0,25.5,29.85,NNE,22,5.4,13.9,20,0.00,,SKC,0.31,VWS V14.00,2013-05-28 19:25:00,
2013-05-28 12:26:00,70.3,26.2,29.85,NNW,338,2.9,5.4,19,0.00,,SKC,0.31,VWS V14.00,2013-05-28 19:26:00,
2013-05-28 12:29:00,70.0,25.9,29.85,NNE,22,4.5,6.3,19,0.00,,SKC,0.31,VWS V14.00,2013-05-28 19:29:00,
2013-05-28 12:30:00,69.1,26.4,29.85,NE,45,7.6,9.6,20,0.00,,SKC,0.31,VWS V14.00,2013-05-28 19:30:00,
2013-05-28 12:31:00,68.5,25.9,29.85,NNE,22,8.7,8.7,20,0.00,,SKC,0.31,VWS V14.00,2013-05-28 19:31:00,
2013-05-28 12:32:00,68.5,25.9,29.85,NNE,22,8.7,8.7,20,0.00,,SKC,0.31,VWS V14.00,2013-05-28 19:32:00,
2013-05-28 12:34:00,66.2,24.0,29.85,NNW,338,10.3,10.7,20,0.00,,SKC,0.31,VWS V14.00,2013-05-28 19:34:00,
2013-05-28 12:35:00,66.2,24.0,29.85,NW,315,7.8,10.7,20,0.00,,SKC,0.31,VWS V14.00,2013-05-28 19:35:00,
2013-05-28 12:36:00,66.2,24.0,29.85,NNE,22,6.0,7.8,20,0.00,,SKC,0.31,VWS V14.00,2013-05-28 19:36:00,
2013-05-28 12:37:00,69.6,26.8,29.85,NNE,22,3.8,7.8,20,0.00,,SKC,0.31,VWS V14.00,2013-05-28 19:37:00,
2013-05-28 12:39:00,70.3,26.2,29.85,NNW,338,6.5,7.8,19,0.00,,SKC,0.31,VWS V14.00,2013-05-28 19:39:00,
2013-05-28 12:40:00,68.0,25.5,29.85,NNE,22,7.4,12.3,20,0.00,,SKC,0.31,VWS V14.00,2013-05-28 19:40:00,
2013-05-28 12:41:00,68.0,25.5,29.85,NNE,22,7.4,12.3,20,0.00,,SKC,0.31,VWS V14.00,2013-05-28 19:41:00,
2013-05-28 12:42:00,68.0,25.5,29.85,NNW,338,11.0,12.3,20,0.00,,SKC,0.31,VWS V14.00,2013-05-28 19:42:00,
2013-05-28 12:44:00,66.9,24.6,29.85,NNW,338,6.5,12.3,20,0.00,,SKC,0.31,VWS V14.00,2013-05-28 19:44:00,
2013-05-28 12:45:00,66.7,24.4,29.85,NNW,338,5.6,6.0,20,0.00,,SKC,0.31,VWS V14.00,2013-05-28 19:45:00,
2013-05-28 12:46:00,66.6,24.3,29.85,North,0,12.1,12.1,20,0.00,,SKC,0.31,VWS V14.00,2013-05-28 19:46:00,
2013-05-28 12:47:00,66.6,24.3,29.85,North,0,9.8,12.1,20,0.00,,SKC,0.31,VWS V14.00,2013-05-28 19:47:00,
2013-05-28 12:49:00,67.5,25.0,29.85,NNE,22,4.9,12.1,20,0.00,,SKC,0.31,VWS V14.00,2013-05-28 19:49:00,
2013-05-28 12:50:00,68.7,26.1,29.85,NE,45,5.8,12.1,20,0.00,,SKC,0.31,VWS V14.00,2013-05-28 19:50:00,
2013-05-28 12:51:00,69.8,25.7,29.85,NNE,22,6.0,7.2,19,0.00,,SKC,0.31,VWS V14.00,2013-05-28 19:51:00,
2013-05-28 12:52:00,69.8,25.7,29.85,NNE,22,7.4,8.7,19,0.00,,SKC,0.31,VWS V14.00,2013-05-28 19:52:00,
2013-05-28 12:54:00,69.8,25.7,29.85,NE,45,6.0,8.7,19,0.00,,SKC,0.31,VWS V14.00,2013-05-28 19:54:00,
2013-05-28 12:55:00,69.4,26.7,29.85,North,0,12.3,12.3,20,0.00,,SKC,0.31,VWS V14.00,2013-05-28 19:55:00,
2013-05-28 12:56:00,69.4,26.7,29.85,NNE,22,12.3,12.3,20,0.00,,SKC,0.31,VWS V14.00,2013-05-28 19:56:00,
2013-05-28 12:57:00,69.4,26.7,29.85,NW,315,8.5,12.3,20,0.00,,SKC,0.31,VWS V14.00,2013-05-28 19:57:00,
2013-05-28 12:59:00,71.4,27.0,29.85,NNE,22,7.4,12.3,19,0.00,,SKC,0.31,VWS V14.00,2013-05-28 19:59:00,
2013-05-28 13:00:00,71.4,27.0,29.85,NNE,22,6.3,12.3,19,0.00,,SKC,0.31,VWS V14.00,2013-05-28 20:00:00,
2013-05-28 13:01:00,71.1,26.8,29.85,NNE,22,10.3,12.5,19,0.00,,SKC,0.31,VWS V14.00,2013-05-28 20:01:00,
2013-05-28 13:02:00,71.8,27.3,29.85,ENE,68,6.0,12.5,19,0.00,,SKC,0.31,VWS V14.00,2013-05-28 20:02:00,
2013-05-28 13:04:00,71.8,27.3,29.85,North,0,10.5,12.5,19,0.00,,SKC,0.31,VWS V14.00,2013-05-28 20:04:00,
2013-05-28 13:05:00,71.8,27.3,29.85,NE,45,10.3,12.5,19,0.00,,SKC,0.31,VWS V14.00,2013-05-28 20:05:00,
2013-05-28 13:06:00,71.2,26.9,29.85,NNE,22,8.7,11.0,19,0.00,,SKC,0.31,VWS V14.00,2013-05-28 20:06:00,
2013-05-28 13:07:00,71.2,26.9,29.85,NNE,22,8.7,11.0,19,0.00,,SKC,0.31,VWS V14.00,2013-05-28 20:07:00,
2013-05-28 13:10:00,68.9,22.3,29.85,North,0,7.4,15.2,17,0.00,,SKC,0.31,VWS V14.00,2013-05-28 20:10:00,
2013-05-28 13:11:00,70.0,25.9,29.85,NNE,22,3.4,8.5,19,0.00,,SKC,0.31,VWS V14.00,2013-05-28 20:11:00,
2013-05-28 13:13:00,70.0,25.9,29.85,North,0,8.5,8.5,19,0.00,,SKC,0.31,VWS V14.00,2013-05-28 20:13:00,
2013-05-28 13:15:00,71.8,27.3,29.82,NNE,22,10.7,10.7,19,0.00,,SKC,0.31,VWS V14.00,2013-05-28 20:15:00,
2013-05-28 13:16:00,70.9,23.9,29.82,NNW,338,5.8,11.0,17,0.00,,SKC,0.31,VWS V14.00,2013-05-28 20:16:00,
2013-05-28 13:17:00,70.9,23.9,29.82,North,0,6.5,11.0,17,0.00,,SKC,0.31,VWS V14.00,2013-05-28 20:17:00,
2013-05-28 13:18:00,71.1,26.8,29.82,NNW,338,10.1,13.0,19,0.00,,SKC,0.31,VWS V14.00,2013-05-28 20:18:00,
2013-05-28 13:20:00,71.6,23.1,29.82,North,0,10.3,13.0,16,0.00,,SKC,0.31,VWS V14.00,2013-05-28 20:20:00,
2013-05-28 13:22:00,68.9,22.3,29.82,NNE,22,8.5,13.0,17,0.00,,SKC,0.31,VWS V14.00,2013-05-28 20:22:00,
2013-05-28 13:23:00,68.4,21.9,29.82,North,0,8.7,13.0,17,0.00,,SKC,0.31,VWS V14.00,2013-05-28 20:23:00,
2013-05-28 13:25:00,67.5,25.0,29.82,NNE,22,11.9,18.1,20,0.00,,SKC,0.31,VWS V14.00,2013-05-28 20:25:00,
2013-05-28 13:27:00,67.8,25.3,29.82,NNE,22,10.1,12.8,20,0.00,,SKC,0.31,VWS V14.00,2013-05-28 20:27:00,
2013-05-28 13:28:00,68.9,26.2,29.85,NNE,22,15.4,15.4,20,0.00,,SKC,0.31,VWS V14.00,2013-05-28 20:28:00,
2013-05-28 13:30:00,70.2,26.0,29.85,NNW,338,7.6,15.9,19,0.00,,SKC,0.31,VWS V14.00,2013-05-28 20:30:00,
2013-05-28 13:32:00,70.7,23.8,29.85,NNE,22,10.7,14.5,17,0.00,,SKC,0.31,VWS V14.00,2013-05-28 20:32:00,
2013-05-28 13:33:00,70.7,23.8,29.85,North,0,10.1,14.5,17,0.00,,SKC,0.31,VWS V14.00,2013-05-28 20:33:00,
2013-05-28 13:35:00,69.6,22.9,29.85,NNE,22,10.1,14.5,17,0.00,,SKC,0.31,VWS V14.00,2013-05-28 20:35:00,
2013-05-28 13:37:00,69.6,22.9,29.85,NNW,338,12.3,12.3,17,0.00,,SKC,0.31,VWS V14.00,2013-05-28 20:37:00,
2013-05-28 13:38:00,69.3,22.6,29.85,North,0,12.8,12.8,17,0.00,,SKC,0.31,VWS V14.00,2013-05-28 20:38:00,
2013-05-28 13:40:00,70.5,23.6,29.85,NW,315,10.1,12.8,17,0.00,,SKC,0.31,VWS V14.00,2013-05-28 20:40:00,
2013-05-28 13:42:00,70.5,23.6,29.85,North,0,15.2,15.7,17,0.00,,SKC,0.31,VWS V14.00,2013-05-28 20:42:00,
2013-05-28 13:43:00,70.5,23.6,29.85,North,0,10.5,15.7,17,0.00,,SKC,0.31,VWS V14.00,2013-05-28 20:43:00,
2013-05-28 13:45:00,71.2,24.2,29.82,NNE,22,12.1,15.7,17,0.00,,SKC,0.31,VWS V14.00,2013-05-28 20:45:00,
2013-05-28 13:47:00,71.1,24.1,29.82,NE,45,7.8,15.4,17,0.00,,SKC,0.31,VWS V14.00,2013-05-28 20:47:00,
2013-05-28 13:48:00,71.1,24.1,29.82,NE,45,7.8,15.4,17,0.00,,SKC,0.31,VWS V14.00,2013-05-28 20:48:00,
2013-05-28 13:50:00,72.1,23.5,29.82,NNE,22,5.6,5.6,16,0.00,,SKC,0.31,VWS V14.00,2013-05-28 20:50:00,
2013-05-28 13:52:00,72.3,23.6,29.82,NNE,22,8.7,11.0,16,0.00,,SKC,0.31,VWS V14.00,2013-05-28 20:52:00,
2013-05-28 13:53:00,73.0,24.2,29.82,NNE,22,3.8,11.0,16,0.00,,SKC,0.31,VWS V14.00,2013-05-28 20:53:00,
2013-05-28 13:54:00,73.0,24.2,29.82,NNE,22,3.8,11.0,16,0.00,,SKC,0.31,VWS V14.00,2013-05-28 20:54:00,
2013-05-28 13:55:00,73.0,24.2,29.82,NNW,338,9.8,9.8,16,0.00,,SKC,0.31,VWS V14.00,2013-05-28 20:55:00,
2013-05-28 13:57:00,72.1,23.5,29.82,NNW,338,9.4,11.4,16,0.00,,SKC,0.31,VWS V14.00,2013-05-28 20:57:00,
2013-05-28 13:58:00,72.0,23.4,29.82,NNE,22,15.4,15.4,16,0.00,,SKC,0.31,VWS V14.00,2013-05-28 20:58:00,
2013-05-28 13:59:00,72.0,23.4,29.82,NNE,22,12.3,15.4,16,0.00,,SKC,0.31,VWS V14.00,2013-05-28 20:59:00,
2013-05-28 14:00:00,71.6,23.1,29.82,NNE,22,13.0,13.4,16,0.00,,SKC,0.31,VWS V14.00,2013-05-28 21:00:00,
2013-05-28 14:01:00,71.8,23.2,29.82,North,0,10.7,13.4,16,0.00,,SKC,0.31,VWS V14.00,2013-05-28 21:01:00,
2013-05-28 14:02:00,72.3,23.6,29.82,NNW,338,8.1,13.4,16,0.00,,SKC,0.31,VWS V14.00,2013-05-28 21:02:00,
2013-05-28 14:03:00,72.3,23.6,29.82,North,0,8.1,13.4,16,0.00,,SKC,0.31,VWS V14.00,2013-05-28 21:03:00,
2013-05-28 14:04:00,72.5,23.8,29.82,North,0,10.5,13.4,16,0.00,,SKC,0.31,VWS V14.00,2013-05-28 21:04:00,
2013-05-28 14:05:00,72.0,23.4,29.82,NNW,338,12.8,15.4,16,0.00,,SKC,0.31,VWS V14.00,2013-05-28 21:05:00,
2013-05-28 14:06:00,71.6,23.1,29.82,NNW,338,16.1,16.1,16,0.00,,SKC,0.31,VWS V14.00,2013-05-28 21:06:00,
2013-05-28 14:07:00,71.6,23.1,29.82,North,0,12.8,16.1,16,0.00,,SKC,0.31,VWS V14.00,2013-05-28 21:07:00,
2013-05-28 14:08:00,71.6,23.1,29.82,NNW,338,12.5,16.1,16,0.00,,SKC,0.31,VWS V14.00,2013-05-28 21:08:00,
2013-05-28 14:09:00,71.6,23.1,29.82,NNE,22,13.0,16.1,16,0.00,,SKC,0.31,VWS V14.00,2013-05-28 21:09:00,
2013-05-28 14:10:00,71.6,23.1,29.82,NNE,22,13.0,16.1,16,0.00,,SKC,0.31,VWS V14.00,2013-05-28 21:10:00,
2013-05-28 14:11:00,71.6,23.1,29.82,NNE,22,10.5,13.0,16,0.00,,SKC,0.31,VWS V14.00,2013-05-28 21:11:00,
2013-05-28 14:13:00,71.2,24.2,29.82,NE,45,3.8,13.0,17,0.00,,SKC,0.31,VWS V14.00,2013-05-28 21:13:00,
2013-05-28 14:14:00,71.1,24.1,29.82,NNW,338,8.5,13.0,17,0.00,,SKC,0.31,VWS V14.00,2013-05-28 21:14:00,
2013-05-28 14:15:00,71.1,24.1,29.82,North,0,12.8,12.8,17,0.00,,SKC,0.31,VWS V14.00,2013-05-28 21:15:00,
2013-05-28 14:16:00,71.1,24.1,29.82,North,0,12.8,12.8,17,0.00,,SKC,0.31,VWS V14.00,2013-05-28 21:16:00,
2013-05-28 14:18:00,71.1,24.1,29.82,North,0,10.3,12.8,17,0.00,,SKC,0.31,VWS V14.00,2013-05-28 21:18:00,
2013-05-28 14:19:00,71.1,24.1,29.82,North,0,11.0,15.9,17,0.00,,SKC,0.31,VWS V14.00,2013-05-28 21:19:00,
2013-05-28 14:20:00,71.1,24.1,29.82,NNE,22,6.3,15.9,17,0.00,,SKC,0.31,VWS V14.00,2013-05-28 21:20:00,
2013-05-28 14:21:00,72.7,23.9,29.82,North,0,10.5,10.5,16,0.00,,SKC,0.31,VWS V14.00,2013-05-28 21:21:00,
2013-05-28 14:23:00,71.6,23.1,29.82,NNE,22,13.6,13.6,16,0.00,,SKC,0.31,VWS V14.00,2013-05-28 21:23:00,
2013-05-28 14:24:00,71.6,23.1,29.82,North,0,11.0,13.6,16,0.00,,SKC,0.31,VWS V14.00,2013-05-28 21:24:00,
2013-05-28 14:25:00,71.6,23.1,29.82,NNE,22,5.6,13.6,16,0.00,,SKC,0.31,VWS V14.00,2013-05-28 21:25:00,
2013-05-28 14:26:00,71.6,23.1,29.82,NNE,22,5.6,13.6,16,0.00,,SKC,0.31,VWS V14.00,2013-05-28 21:26:00,
2013-05-28 14:28:00,73.2,24.4,29.82,NNE,22,8.7,8.7,16,0.00,,SKC,0.31,VWS V14.00,2013-05-28 21:28:00,
2013-05-28 14:29:00,73.2,24.4,29.82,NNE,22,8.7,8.7,16,0.00,,SKC,0.31,VWS V14.00,2013-05-28 21:29:00,
2013-05-28 14:30:00,73.2,24.4,29.82,NNE,22,11.0,11.0,16,0.00,,SKC,0.31,VWS V14.00,2013-05-28 21:30:00,
2013-05-28 14:31:00,73.2,24.4,29.82,NNE,22,16.8,16.8,16,0.00,,SKC,0.31,VWS V14.00,2013-05-28 21:31:00,
2013-05-28 14:33:00,71.2,24.2,29.82,NNE,22,10.1,16.8,17,0.00,,SKC,0.31,VWS V14.00,2013-05-28 21:33:00,
2013-05-28 14:34:00,71.6,23.1,29.82,North,0,7.6,16.8,16,0.00,,SKC,0.31,VWS V14.00,2013-05-28 21:34:00,
2013-05-28 14:35:00,71.2,24.2,29.82,NNW,338,12.5,16.8,17,0.00,,SKC,0.31,VWS V14.00,2013-05-28 21:35:00,
2013-05-28 14:36:00,71.2,24.2,29.82,NNE,22,13.0,13.0,17,0.00,,SKC,0.31,VWS V14.00,2013-05-28 21:36:00,
2013-05-28 14:38:00,72.1,23.5,29.82,NNW,338,12.8,13.0,16,0.00,,SKC,0.31,VWS V14.00,2013-05-28 21:38:00,
2013-05-28 14:39:00,72.1,23.5,29.82,NNW,338,12.8,13.0,16,0.00,,SKC,0.31,VWS V14.00,2013-05-28 21:39:00,
2013-05-28 14:40:00,72.1,23.5,29.82,NNE,22,6.5,13.0,16,0.00,,SKC,0.31,VWS V14.00,2013-05-28 21:40:00,
2013-05-28 14:41:00,71.1,24.1,29.82,North,0,10.3,12.1,17,0.00,,SKC,0.31,VWS V14.00,2013-05-28 21:41:00,
2013-05-28 14:43:00,71.6,23.1,29.79,NNE,22,8.5,12.1,16,0.00,,SKC,0.31,VWS V14.00,2013-05-28 21:43:00,
2013-05-28 14:44:00,71.4,24.4,29.79,NNW,338,8.7,12.1,17,0.00,,SKC,0.31,VWS V14.00,2013-05-28 21:44:00,
2013-05-28 14:45:00,71.4,24.4,29.79,NNW,338,10.1,12.1,17,0.00,,SKC,0.31,VWS V14.00,2013-05-28 21:45:00,
2013-05-28 14:46:00,71.2,24.2,29.79,NNW,338,15.2,18.6,17,0.00,,SKC,0.31,VWS V14.00,2013-05-28 21:46:00,
2013-05-28 14:47:00,71.2,24.2,29.79,NNE,22,16.8,18.6,17,0.00,,SKC,0.31,VWS V14.00,2013-05-28 21:47:00,
2013-05-28 14:48:00,71.2,24.2,29.79,NNW,338,11.0,18.6,17,0.00,,SKC,0.31,VWS V14.00,2013-05-28 21:48:00,
2013-05-28 14:49:00,71.2,24.2,29.79,NNE,22,16.8,18.6,17,0.00,,SKC,0.31,VWS V14.00,2013-05-28 21:49:00,
2013-05-28 14:50:00,71.2,24.2,29.79,NNE,22,16.8,18.6,17,0.00,,SKC,0.31,VWS V14.00,2013-05-28 21:50:00,
2013-05-28 14:51:00,72.0,23.4,29.79,NNE,22,8.7,12.5,16,0.00,,SKC,0.31,VWS V14.00,2013-05-28 21:51:00,
2013-05-28 14:52:00,72.0,23.4,29.79,NNE,22,8.7,12.5,16,0.00,,SKC,0.31,VWS V14.00,2013-05-28 21:52:00,
2013-05-28 14:53:00,71.8,23.2,29.79,North,0,10.3,12.5,16,0.00,,SKC,0.31,VWS V14.00,2013-05-28 21:53:00,
2013-05-28 14:54:00,71.8,23.2,29.79,North,0,7.8,12.5,16,0.00,,SKC,0.31,VWS V14.00,2013-05-28 21:54:00,
2013-05-28 14:55:00,71.8,23.2,29.79,North,0,7.8,12.5,16,0.00,,SKC,0.31,VWS V14.00,2013-05-28 21:55:00,
2013-05-28 14:57:00,72.0,23.4,29.79,North,0,8.7,16.3,16,0.00,,SKC,0.31,VWS V14.00,2013-05-28 21:57:00,
2013-05-28 14:58:00,72.9,24.1,29.82,NNW,338,12.3,17.7,16,0.00,,SKC,0.31,VWS V14.00,2013-05-28 21:58:00,
2013-05-28 14:59:00,72.9,24.1,29.82,NNW,338,12.3,17.7,16,0.00,,SKC,0.31,VWS V14.00,2013-05-28 21:59:00,
2013-05-28 15:00:00,72.9,24.1,29.82,NNW,338,12.3,17.7,16,0.00,,SKC,0.31,VWS V14.00,2013-05-28 22:00:00,
2013-05-28 15:02:00,72.1,23.5,29.82,NNW,338,7.8,15.2,16,0.00,,SKC,0.31,VWS V14.00,2013-05-28 22:02:00,
2013-05-28 15:03:00,73.6,24.7,29.82,North,0,8.1,15.2,16,0.00,,SKC,0.31,VWS V14.00,2013-05-28 22:03:00,
2013-05-28 15:04:00,73.8,24.8,29.82,NW,315,5.8,15.2,16,0.00,,SKC,0.31,VWS V14.00,2013-05-28 22:04:00,
2013-05-28 15:05:00,74.3,25.2,29.82,WNW,292,5.8,7.6,16,0.00,,SKC,0.31,VWS V14.00,2013-05-28 22:05:00,
2013-05-28 15:07:00,74.1,25.1,29.82,NNW,338,8.1,12.8,16,0.00,,SKC,0.31,VWS V14.00,2013-05-28 22:07:00,
2013-05-28 15:08:00,74.3,20.3,29.82,North,0,9.6,12.8,13,0.00,,SKC,0.31,VWS V14.00,2013-05-28 22:08:00,
2013-05-28 15:10:00,75.2,21.0,29.82,NW,315,13.0,13.0,13,0.00,,SKC,0.31,VWS V14.00,2013-05-28 22:10:00,
2013-05-28 15:12:00,74.1,20.2,29.82,NW,315,10.1,17.2,13,0.00,,SKC,0.31,VWS V14.00,2013-05-28 22:12:00,
2013-05-28 15:14:00,74.1,20.2,29.82,NW,315,10.1,17.2,13,0.00,,SKC,0.31,VWS V14.00,2013-05-28 22:14:00,
2013-05-28 15:15:00,73.4,19.6,29.82,NW,315,10.7,17.2,13,0.00,,SKC,0.31,VWS V14.00,2013-05-28 22:15:00,
2013-05-28 15:17:00,73.8,19.9,29.82,NW,315,8.5,17.2,13,0.00,,SKC,0.31,VWS V14.00,2013-05-28 22:17:00,
2013-05-28 15:18:00,73.8,19.9,29.82,NW,315,8.5,17.2,13,0.00,,SKC,0.31,VWS V14.00,2013-05-28 22:18:00,
2013-05-28 15:19:00,74.3,20.3,29.82,NNW,338,8.1,17.2,13,0.00,,SKC,0.31,VWS V14.00,2013-05-28 22:19:00,
2013-05-28 15:20:00,74.1,20.2,29.82,NW,315,11.0,17.2,13,0.00,,SKC,0.31,VWS V14.00,2013-05-28 22:20:00,
2013-05-28 15:23:00,74.3,20.3,29.82,NNW,338,7.8,12.8,13,0.00,,SKC,0.31,VWS V14.00,2013-05-28 22:23:00,
2013-05-28 15:24:00,74.3,20.3,29.82,NW,315,10.5,12.8,13,0.00,,SKC,0.31,VWS V14.00,2013-05-28 22:24:00,
2013-05-28 15:25:00,74.5,20.5,29.82,NNW,338,10.3,12.8,13,0.00,,SKC,0.31,VWS V14.00,2013-05-28 22:25:00,
2013-05-28 15:28:00,74.7,20.6,29.82,NNW,338,7.6,12.8,13,0.00,,SKC,0.31,VWS V14.00,2013-05-28 22:28:00,
2013-05-28 15:29:00,74.7,20.6,29.82,NW,315,12.5,15.7,13,0.00,,SKC,0.31,VWS V14.00,2013-05-28 22:29:00,
2013-05-28 15:30:00,74.5,20.5,29.82,NW,315,8.1,10.7,13,0.00,,SKC,0.31,VWS V14.00,2013-05-28 22:30:00,
2013-05-28 15:31:00,74.7,20.6,29.82,West,270,11.0,11.0,13,0.00,,SKC,0.31,VWS V14.00,2013-05-28 22:31:00,
2013-05-28 15:33:00,74.7,20.6,29.82,NNW,338,7.6,11.0,13,0.00,,SKC,0.31,VWS V14.00,2013-05-28 22:33:00,
2013-05-28 15:34:00,75.0,20.9,29.82,WNW,292,7.2,11.0,13,0.00,,SKC,0.31,VWS V14.00,2013-05-28 22:34:00,
2013-05-28 15:35:00,75.6,21.3,29.82,WNW,292,17.2,17.2,13,0.00,,SKC,0.31,VWS V14.00,2013-05-28 22:35:00,
2013-05-28 15:36:00,75.6,21.3,29.82,NNW,338,5.4,11.0,13,0.00,,SKC,0.31,VWS V14.00,2013-05-28 22:36:00,
2013-05-28 15:38:00,74.8,20.7,29.82,NW,315,13.0,17.2,13,0.00,,SKC,0.31,VWS V14.00,2013-05-28 22:38:00,
2013-05-28 15:39:00,74.8,20.7,29.82,NNW,338,10.7,17.2,13,0.00,,SKC,0.31,VWS V14.00,2013-05-28 22:39:00,
2013-05-28 15:40:00,75.4,21.2,29.82,WNW,292,7.4,17.2,13,0.00,,SKC,0.31,VWS V14.00,2013-05-28 22:40:00,
2013-05-28 15:41:00,75.7,21.5,29.82,WNW,292,6.7,7.4,13,0.00,,SKC,0.31,VWS V14.00,2013-05-28 22:41:00,
2013-05-28 15:43:00,76.6,22.1,29.82,NNW,338,10.5,10.7,13,0.00,,SKC,0.31,VWS V14.00,2013-05-28 22:43:00,
2013-05-28 15:44:00,75.6,21.3,29.82,NW,315,12.5,15.2,13,0.00,,SKC,0.31,VWS V14.00,2013-05-28 22:44:00,
2013-05-28 15:45:00,74.8,20.7,29.82,NNW,338,10.7,16.1,13,0.00,,SKC,0.31,VWS V14.00,2013-05-28 22:45:00,
2013-05-28 15:46:00,74.8,20.7,29.82,NW,315,13.2,13.2,13,0.00,,SKC,0.31,VWS V14.00,2013-05-28 22:46:00,
2013-05-28 15:48:00,75.6,21.3,29.82,WNW,292,6.3,13.2,13,0.00,,SKC,0.31,VWS V14.00,2013-05-28 22:48:00,
2013-05-28 15:49:00,75.6,21.3,29.82,NW,315,9.4,13.2,13,0.00,,SKC,0.31,VWS V14.00,2013-05-28 22:49:00,
2013-05-28 15:51:00,75.2,21.0,29.82,WNW,292,6.5,13.2,13,0.00,,SKC,0.31,VWS V14.00,2013-05-28 22:51:00,
2013-05-28 15:53:00,76.5,22.0,29.82,North,0,10.7,13.2,13,0.00,,SKC,0.31,VWS V14.00,2013-05-28 22:53:00,
2013-05-28 15:54:00,76.1,21.7,29.82,North,0,10.7,13.2,13,0.00,,SKC,0.31,VWS V14.00,2013-05-28 22:54:00,
2013-05-28 15:55:00,76.1,21.7,29.82,NW,315,10.3,13.2,13,0.00,,SKC,0.31,VWS V14.00,2013-05-28 22:55:00,
2013-05-28 15:56:00,75.6,21.3,29.82,WNW,292,12.3,13.0,13,0.00,,SKC,0.31,VWS V14.00,2013-05-28 22:56:00,
2013-05-28 15:58:00,76.6,22.1,29.82,North,0,7.2,13.2,13,0.00,,SKC,0.31,VWS V14.00,2013-05-28 22:58:00,
2013-05-28 15:59:00,76.3,21.9,29.82,North,0,7.2,13.2,13,0.00,,SKC,0.31,VWS V14.00,2013-05-28 22:59:00,
2013-05-28 16:00:00,76.3,21.9,29.82,North,0,7.4,13.2,13,0.00,,SKC,0.31,VWS V14.00,2013-05-28 23:00:00,
2013-05-28 16:01:00,75.7,21.5,29.82,NW,315,6.3,11.0,13,0.00,,SKC,0.31,VWS V14.00,2013-05-28 23:01:00,
2013-05-28 16:02:00,75.7,21.5,29.82,North,0,11.0,11.0,13,0.00,,SKC,0.31,VWS V14.00,2013-05-28 23:02:00,
2013-05-28 16:04:00,75.6,21.3,29.82,WNW,292,8.7,11.9,13,0.00,,SKC,0.31,VWS V14.00,2013-05-28 23:04:00,
2013-05-28 16:05:00,75.6,21.3,29.82,WNW,292,12.3,12.3,13,0.00,,SKC,0.31,VWS V14.00,2013-05-28 23:05:00,
2013-05-28 16:06:00,74.8,20.7,29.82,NNW,338,10.5,17.5,13,0.00,,SKC,0.31,VWS V14.00,2013-05-28 23:06:00,
2013-05-28 16:07:00,74.8,20.7,29.82,NW,315,8.1,17.5,13,0.00,,SKC,0.31,VWS V14.00,2013-05-28 23:07:00,
2013-05-28 16:09:00,74.8,20.7,29.82,NNW,338,7.8,17.5,13,0.00,,SKC,0.31,VWS V14.00,2013-05-28 23:09:00,
2013-05-28 16:10:00,74.3,20.3,29.82,NNW,338,10.5,17.5,13,0.00,,SKC,0.31,VWS V14.00,2013-05-28 23:10:00,
2013-05-28 16:11:00,73.8,19.9,29.82,NW,315,11.0,11.0,13,0.00,,SKC,0.31,VWS V14.00,2013-05-28 23:11:00,
2013-05-28 16:12:00,73.8,19.9,29.82,NNW,338,12.5,12.5,13,0.00,,SKC,0.31,VWS V14.00,2013-05-28 23:12:00,
2013-05-28 16:14:00,73.4,19.6,29.82,NNW,338,12.3,15.4,13,0.00,,SKC,0.31,VWS V14.00,2013-05-28 23:14:00,
2013-05-28 16:15:00,73.6,19.8,29.82,NNW,338,11.0,15.4,13,0.00,,SKC,0.31,VWS V14.00,2013-05-28 23:15:00,
2013-05-28 16:17:00,73.8,19.9,29.82,NNW,338,7.8,11.0,13,0.00,,SKC,0.31,VWS V14.00,2013-05-28 23:17:00,
2013-05-28 16:19:00,74.7,20.6,29.82,NNW,338,7.8,11.0,13,0.00,,SKC,0.31,VWS V14.00,2013-05-28 23:19:00,
2013-05-28 16:20:00,74.7,20.6,29.82,NNW,338,7.8,11.0,13,0.00,,SKC,0.31,VWS V14.00,2013-05-28 23:20:00,
2013-05-28 16:22:00,73.8,19.9,29.82,NNW,338,12.1,14.8,13,0.00,,SKC,0.31,VWS V14.00,2013-05-28 23:22:00,
2013-05-28 16:24:00,73.9,20.0,29.82,North,0,10.1,14.8,13,0.00,,SKC,0.31,VWS V14.00,2013-05-28 23:24:00,
2013-05-28 16:25:00,74.5,20.5,29.82,North,0,12.3,14.8,13,0.00,,SKC,0.31,VWS V14.00,2013-05-28 23:25:00,
2013-05-28 16:27:00,74.5,20.5,29.82,NNW,338,10.3,14.8,13,0.00,,SKC,0.31,VWS V14.00,2013-05-28 23:27:00,
2013-05-28 16:29:00,74.5,20.5,29.82,WNW,292,9.4,14.8,13,0.00,,SKC,0.31,VWS V14.00,2013-05-28 23:29:00,
2013-05-28 16:30:00,74.5,20.5,29.82,NW,315,9.6,14.8,13,0.00,,SKC,0.31,VWS V14.00,2013-05-28 23:30:00,
2013-05-28 16:32:00,75.0,20.9,29.82,NNW,338,7.8,10.7,13,0.00,,SKC,0.31,VWS V14.00,2013-05-28 23:32:00,
2013-05-28 16:34:00,75.0,20.9,29.82,NNW,338,7.8,13.0,13,0.00,,SKC,0.31,VWS V14.00,2013-05-28 23:34:00,
2013-05-28 16:35:00,75.0,20.9,29.82,North,0,10.1,13.0,13,0.00,,SKC,0.31,VWS V14.00,2013-05-28 23:35:00,
2013-05-28 16:37:00,74.7,20.6,29.82,NW,315,14.3,14.3,13,0.00,,SKC,0.31,VWS V14.00,2013-05-28 23:37:00,
2013-05-28 16:38:00,74.3,20.3,29.82,NW,315,12.8,14.3,13,0.00,,SKC,0.31,VWS V14.00,2013-05-28 23:38:00,
2013-05-28 16:39:00,74.3,20.3,29.82,WNW,292,12.8,14.3,13,0.00,,SKC,0.31,VWS V14.00,2013-05-28 23:39:00,
2013-05-28 16:40:00,74.3,20.3,29.82,WNW,292,12.8,14.3,13,0.00,,SKC,0.31,VWS V14.00,2013-05-28 23:40:00,
2013-05-28 16:43:00,73.6,19.8,29.82,WNW,292,7.2,12.3,13,0.00,,SKC,0.31,VWS V14.00,2013-05-28 23:43:00,
2013-05-28 16:45:00,74.1,20.2,29.82,NW,315,9.0,12.3,13,0.00,,SKC,0.31,VWS V14.00,2013-05-28 23:45:00,
2013-05-28 16:48:00,74.5,20.5,29.82,NW,315,6.5,13.6,13,0.00,,SKC,0.31,VWS V14.00,2013-05-28 23:48:00,
2013-05-28 16:50:00,74.5,20.5,29.82,NW,315,10.1,13.6,13,0.00,,SKC,0.31,VWS V14.00,2013-05-28 23:50:00,
2013-05-28 16:53:00,74.5,20.5,29.82,WNW,292,11.0,11.0,13,0.00,,SKC,0.31,VWS V14.00,2013-05-28 23:53:00,
2013-05-28 16:55:00,74.1,20.2,29.82,NW,315,12.1,12.1,13,0.00,,SKC,0.31,VWS V14.00,2013-05-28 23:55:00,
2013-05-28 16:56:00,74.1,20.2,29.82,North,0,7.8,12.1,13,0.00,,SKC,0.31,VWS V14.00,2013-05-28 23:56:00,
2013-05-28 16:58:00,75.4,21.2,29.82,NW,315,10.1,12.8,13,0.00,,SKC,0.31,VWS V14.00,2013-05-28 23:58:00,
2013-05-28 17:00:00,75.0,20.9,29.82,NNW,338,3.8,5.6,13,0.00,,SKC,0.31,VWS V14.00,2013-05-29 00:00:00,
2013-05-28 17:01:00,75.7,21.5,29.82,WNW,292,4.7,5.6,13,0.00,,SKC,0.31,VWS V14.00,2013-05-29 00:01:00,
2013-05-28 17:03:00,76.3,21.9,29.82,NNW,338,9.0,9.0,13,0.00,,SKC,0.31,VWS V14.00,2013-05-29 00:03:00,
2013-05-28 17:04:00,76.3,21.9,29.82,NW,315,11.0,11.0,13,0.00,,SKC,0.31,VWS V14.00,2013-05-29 00:04:00,
2013-05-28 17:05:00,76.3,21.9,29.82,North,0,10.5,11.0,13,0.00,,SKC,0.31,VWS V14.00,2013-05-29 00:05:00,
2013-05-28 17:06:00,76.3,21.9,29.82,North,0,7.2,11.0,13,0.00,,SKC,0.31,VWS V14.00,2013-05-29 00:06:00,
2013-05-28 17:08:00,74.8,20.7,29.82,NNW,338,7.8,8.1,13,0.00,,SKC,0.31,VWS V14.00,2013-05-29 00:08:00,
2013-05-28 17:09:00,74.7,20.6,29.82,North,0,6.3,9.2,13,0.00,,SKC,0.31,VWS V14.00,2013-05-29 00:09:00,
2013-05-28 17:10:00,74.7,20.6,29.82,NW,315,6.0,9.2,13,0.00,,SKC,0.31,VWS V14.00,2013-05-29 00:10:00,
2013-05-28 17:11:00,74.7,20.6,29.82,NW,315,11.0,11.0,13,0.00,,SKC,0.31,VWS V14.00,2013-05-29 00:11:00,
2013-05-28 17:13:00,75.0,20.9,29.82,NNE,22,10.1,12.1,13,0.00,,SKC,0.31,VWS V14.00,2013-05-29 00:13:00,
2013-05-28 17:14:00,75.0,20.9,29.82,NNW,338,6.5,12.1,13,0.00,,SKC,0.31,VWS V14.00,2013-05-29 00:14:00,
2013-05-28 17:15:00,74.8,20.7,29.82,NNW,338,7.6,12.1,13,0.00,,SKC,0.31,VWS V14.00,2013-05-29 00:15:00,
2013-05-28 17:16:00,74.7,20.6,29.82,NNW,338,6.0,7.6,13,0.00,,SKC,0.31,VWS V14.00,2013-05-29 00:16:00,
2013-05-28 17:18:00,74.7,20.6,29.82,NNW,338,7.2,8.1,13,0.00,,SKC,0.31,VWS V14.00,2013-05-29 00:18:00,
2013-05-28 17:19:00,74.7,20.6,29.82,NW,315,12.5,12.5,13,0.00,,SKC,0.31,VWS V14.00,2013-05-29 00:19:00,
2013-05-28 17:20:00,74.3,20.3,29.82,NNW,338,10.7,12.5,13,0.00,,SKC,0.31,VWS V14.00,2013-05-29 00:20:00,
2013-05-28 17:21:00,74.1,20.2,29.82,NNW,338,10.7,10.7,13,0.00,,SKC,0.31,VWS V14.00,2013-05-29 00:21:00,
2013-05-28 17:23:00,74.1,20.2,29.82,NNW,338,6.3,10.7,13,0.00,,SKC,0.31,VWS V14.00,2013-05-29 00:23:00,
2013-05-28 17:24:00,74.1,20.2,29.82,NNW,338,7.2,10.7,13,0.00,,SKC,0.31,VWS V14.00,2013-05-29 00:24:00,
2013-05-28 17:25:00,74.3,20.3,29.82,NW,315,6.5,10.7,13,0.00,,SKC,0.31,VWS V14.00,2013-05-29 00:25:00,
2013-05-28 17:26:00,74.3,20.3,29.82,North,0,12.5,12.5,13,0.00,,SKC,0.31,VWS V14.00,2013-05-29 00:26:00,
2013-05-28 17:27:00,73.8,19.9,29.82,North,0,8.5,12.8,13,0.00,,SKC,0.31,VWS V14.00,2013-05-29 00:27:00,
2013-05-28 17:28:00,74.1,20.2,29.82,NNW,338,8.5,12.8,13,0.00,,SKC,0.31,VWS V14.00,2013-05-29 00:28:00,
2013-05-28 17:29:00,74.1,20.2,29.82,NNW,338,8.5,12.8,13,0.00,,SKC,0.31,VWS V14.00,2013-05-29 00:29:00,
2013-05-28 17:30:00,74.8,20.7,29.82,NW,315,5.6,12.8,13,0.00,,SKC,0.31,VWS V14.00,2013-05-29 00:30:00,
2013-05-28 17:31:00,74.8,20.7,29.82,NW,315,6.3,6.3,13,0.00,,SKC,0.31,VWS V14.00,2013-05-29 00:31:00,
2013-05-28 17:32:00,74.8,20.7,29.82,NW,315,6.3,6.3,13,0.00,,SKC,0.31,VWS V14.00,2013-05-29 00:32:00,
2013-05-28 17:33:00,75.6,21.3,29.82,NNW,338,6.3,6.3,13,0.00,,SKC,0.31,VWS V14.00,2013-05-29 00:33:00,
2013-05-28 17:34:00,75.2,21.0,29.82,NNW,338,9.8,9.8,13,0.00,,SKC,0.31,VWS V14.00,2013-05-29 00:34:00,
2013-05-28 17:35:00,75.2,21.0,29.82,NNW,338,6.0,9.8,13,0.00,,SKC,0.31,VWS V14.00,2013-05-29 00:35:00,
2013-05-28 17:36:00,74.7,20.6,29.82,NNW,338,9.4,9.4,13,0.00,,SKC,0.31,VWS V14.00,2013-05-29 00:36:00,
2013-05-28 17:37:00,74.7,20.6,29.82,WNW,292,5.6,9.4,13,0.00,,SKC,0.31,VWS V14.00,2013-05-29 00:37:00,
2013-05-28 17:38:00,74.7,20.6,29.82,WNW,292,10.3,19.5,13,0.00,,SKC,0.31,VWS V14.00,2013-05-29 00:38:00,
2013-05-28 17:39:00,74.5,20.5,29.82,NW,315,8.7,19.5,13,0.00,,SKC,0.31,VWS V14.00,2013-05-29 00:39:00,
2013-05-28 17:41:00,74.1,20.2,29.82,NNW,338,10.3,19.5,13,0.00,,SKC,0.31,VWS V14.00,2013-05-29 00:41:00,
2013-05-28 17:42:00,74.1,20.2,29.82,NNW,338,10.3,19.5,13,0.00,,SKC,0.31,VWS V14.00,2013-05-29 00:42:00,
2013-05-28 17:43:00,73.9,20.0,29.82,NNW,338,8.1,19.5,13,0.00,,SKC,0.31,VWS V14.00,2013-05-29 00:43:00,
2013-05-28 17:44:00,74.1,20.2,29.82,WNW,292,5.6,19.5,13,0.00,,SKC,0.31,VWS V14.00,2013-05-29 00:44:00,
2013-05-28 17:45:00,74.3,20.3,29.82,WNW,292,7.2,19.5,13,0.00,,SKC,0.31,VWS V14.00,2013-05-29 00:45:00,
2013-05-28 17:46:00,74.3,20.3,29.82,WNW,292,7.4,7.4,13,0.00,,SKC,0.31,VWS V14.00,2013-05-29 00:46:00,
2013-05-28 17:47:00,74.3,20.3,29.82,NW,315,5.6,7.4,13,0.00,,SKC,0.31,VWS V14.00,2013-05-29 00:47:00,
2013-05-28 17:48:00,75.0,20.9,29.82,NNW,338,3.8,7.4,13,0.00,,SKC,0.31,VWS V14.00,2013-05-29 00:48:00,
2013-05-28 17:49:00,75.0,20.9,29.82,NW,315,13.0,13.0,13,0.00,,SKC,0.31,VWS V14.00,2013-05-29 00:49:00,
2013-05-28 17:50:00,75.0,20.9,29.82,NW,315,13.0,13.0,13,0.00,,SKC,0.31,VWS V14.00,2013-05-29 00:50:00,
2013-05-28 17:52:00,73.6,19.8,29.82,NNW,338,7.6,13.0,13,0.00,,SKC,0.31,VWS V14.00,2013-05-29 00:52:00,
2013-05-28 17:53:00,73.2,21.2,29.82,NNW,338,8.5,13.0,14,0.00,,SKC,0.31,VWS V14.00,2013-05-29 00:53:00,
2013-05-28 17:54:00,73.2,21.2,29.82,North,0,7.4,13.0,14,0.00,,SKC,0.31,VWS V14.00,2013-05-29 00:54:00,
2013-05-28 17:55:00,72.9,20.9,29.82,NNW,338,13.4,13.4,14,0.00,,SKC,0.31,VWS V14.00,2013-05-29 00:55:00,
2013-05-28 17:57:00,72.3,20.5,29.82,NNW,338,8.7,15.2,14,0.00,,SKC,0.31,VWS V14.00,2013-05-29 00:57:00,
2013-05-28 17:58:00,72.5,20.6,29.82,NNW,338,7.4,15.2,14,0.00,,SKC,0.31,VWS V14.00,2013-05-29 00:58:00,
2013-05-28 18:00:00,73.0,21.1,29.82,WNW,292,6.5,15.2,14,0.00,,SKC,0.31,VWS V14.00,2013-05-29 01:00:00,
2013-05-28 18:02:00,73.0,21.1,29.82,NW,315,6.0,12.1,14,0.00,,SKC,0.31,VWS V14.00,2013-05-29 01:02:00,
2013-05-28 18:03:00,73.0,21.1,29.82,WNW,292,4.7,12.1,14,0.00,,SKC,0.31,VWS V14.00,2013-05-29 01:03:00,
2013-05-28 18:05:00,72.7,20.8,29.82,NW,315,9.8,12.8,14,0.00,,SKC,0.31,VWS V14.00,2013-05-29 01:05:00,
2013-05-28 18:07:00,72.9,20.9,29.82,North,0,3.1,9.2,14,0.00,,SKC,0.31,VWS V14.00,2013-05-29 01:07:00,
2013-05-28 18:08:00,72.7,20.8,29.82,NNW,338,8.1,9.2,14,0.00,,SKC,0.31,VWS V14.00,2013-05-29 01:08:00,
2013-05-28 18:10:00,71.6,19.9,29.82,NNW,338,7.8,11.0,14,0.00,,SKC,0.31,VWS V14.00,2013-05-29 01:10:00,
2013-05-28 18:12:00,71.8,20.1,29.82,NW,315,8.5,13.0,14,0.00,,SKC,0.31,VWS V14.00,2013-05-29 01:12:00,
2013-05-28 18:14:00,71.8,20.1,29.82,NNW,338,7.8,13.0,14,0.00,,SKC,0.31,VWS V14.00,2013-05-29 01:14:00,
2013-05-28 18:15:00,72.0,20.2,29.82,North,0,6.5,7.4,14,0.00,,SKC,0.31,VWS V14.00,2013-05-29 01:15:00,
2013-05-28 18:17:00,70.9,19.4,29.82,NNW,338,8.1,10.1,14,0.00,,SKC,0.31,VWS V14.00,2013-05-29 01:17:00,
2013-05-28 18:18:00,70.9,19.4,29.82,NW,315,5.4,10.1,14,0.00,,SKC,0.31,VWS V14.00,2013-05-29 01:18:00,
2013-05-28 18:19:00,70.9,19.4,29.82,NW,315,5.4,10.1,14,0.00,,SKC,0.31,VWS V14.00,2013-05-29 01:19:00,
2013-05-28 18:20:00,70.5,19.1,29.82,NNW,338,5.6,5.6,14,0.00,,SKC,0.31,VWS V14.00,2013-05-29 01:20:00,
2013-05-28 18:22:00,71.2,19.6,29.82,NNW,338,4.9,5.8,14,0.00,,SKC,0.31,VWS V14.00,2013-05-29 01:22:00,
2013-05-28 18:23:00,71.4,19.8,29.82,North,0,5.4,5.8,14,0.00,,SKC,0.31,VWS V14.00,2013-05-29 01:23:00,
2013-05-28 18:24:00,71.4,19.8,29.82,NNW,338,8.5,8.5,14,0.00,,SKC,0.31,VWS V14.00,2013-05-29 01:24:00,
2013-05-28 18:25:00,71.4,19.8,29.82,NW,315,6.0,8.5,14,0.00,,SKC,0.31,VWS V14.00,2013-05-29 01:25:00,
2013-05-28 18:26:00,71.4,19.8,29.82,NW,315,6.5,9.6,14,0.00,,SKC,0.31,VWS V14.00,2013-05-29 01:26:00,
2013-05-28 18:27:00,71.4,19.8,29.82,North,0,8.5,9.6,14,0.00,,SKC,0.31,VWS V14.00,2013-05-29 01:27:00,
2013-05-28 18:28:00,71.4,19.8,29.82,NW,315,8.7,10.3,14,0.00,,SKC,0.31,VWS V14.00,2013-05-29 01:28:00,
2013-05-28 18:29:00,71.4,19.8,29.82,NNW,338,6.0,10.3,14,0.00,,SKC,0.31,VWS V14.00,2013-05-29 01:29:00,
2013-05-28 18:31:00,71.4,19.8,29.82,NNW,338,7.6,10.3,14,0.00,,SKC,0.31,VWS V14.00,2013-05-29 01:31:00,
2013-05-28 18:32:00,71.6,19.9,29.82,NNW,338,8.5,10.3,14,0.00,,SKC,0.31,VWS V14.00,2013-05-29 01:32:00,
2013-05-28 18:33:00,71.6,19.9,29.82,NNW,338,8.5,10.3,14,0.00,,SKC,0.31,VWS V14.00,2013-05-29 01:33:00,
2013-05-28 18:34:00,71.6,19.9,29.82,WNW,292,9.2,10.3,14,0.00,,SKC,0.31,VWS V14.00,2013-05-29 01:34:00,
2013-05-28 18:35:00,71.6,19.9,29.82,WNW,292,9.2,10.3,14,0.00,,SKC,0.31,VWS V14.00,2013-05-29 01:35:00,
2013-05-28 18:36:00,71.6,19.9,29.82,NNW,338,6.3,9.2,14,0.00,,SKC,0.31,VWS V14.00,2013-05-29 01:36:00,
2013-05-28 18:38:00,71.4,19.8,29.82,NNW,338,7.8,10.5,14,0.00,,SKC,0.31,VWS V14.00,2013-05-29 01:38:00,
2013-05-28 18:39:00,71.6,19.9,29.82,North,0,8.7,10.5,14,0.00,,SKC,0.31,VWS V14.00,2013-05-29 01:39:00,
2013-05-28 18:40:00,71.6,19.9,29.82,NW,315,2.7,10.5,14,0.00,,SKC,0.31,VWS V14.00,2013-05-29 01:40:00,
2013-05-28 18:41:00,71.6,19.9,29.82,NNW,338,8.1,8.1,14,0.00,,SKC,0.31,VWS V14.00,2013-05-29 01:41:00,
2013-05-28 18:43:00,71.4,19.8,29.82,NNW,338,7.4,10.3,14,0.00,,SKC,0.31,VWS V14.00,2013-05-29 01:43:00,
2013-05-28 18:44:00,71.4,19.8,29.82,NNW,338,7.4,10.3,14,0.00,,SKC,0.31,VWS V14.00,2013-05-29 01:44:00,
2013-05-28 18:45:00,71.4,19.8,29.82,NNW,338,8.7,10.3,14,0.00,,SKC,0.31,VWS V14.00,2013-05-29 01:45:00,
2013-05-28 18:46:00,71.1,19.5,29.82,NNW,338,5.6,8.7,14,0.00,,SKC,0.31,VWS V14.00,2013-05-29 01:46:00,
2013-05-28 18:48:00,70.9,19.4,29.82,NNW,338,10.3,10.3,14,0.00,,SKC,0.31,VWS V14.00,2013-05-29 01:48:00,
2013-05-28 18:49:00,70.9,19.4,29.82,NNW,338,7.8,10.3,14,0.00,,SKC,0.31,VWS V14.00,2013-05-29 01:49:00,
2013-05-28 18:50:00,70.9,19.4,29.82,NNW,338,7.4,10.3,14,0.00,,SKC,0.31,VWS V14.00,2013-05-29 01:50:00,
2013-05-28 18:51:00,71.1,19.5,29.82,NNW,338,7.4,7.4,14,0.00,,SKC,0.31,VWS V14.00,2013-05-29 01:51:00,
2013-05-28 18:53:00,71.1,19.5,29.82,NNW,338,7.4,7.4,14,0.00,,SKC,0.31,VWS V14.00,2013-05-29 01:53:00,
2013-05-28 18:54:00,71.1,19.5,29.82,NNW,338,6.3,8.5,14,0.00,,SKC,0.31,VWS V14.00,2013-05-29 01:54:00,
2013-05-28 18:55:00,71.1,19.5,29.82,NNW,338,6.3,6.3,14,0.00,,SKC,0.31,VWS V14.00,2013-05-29 01:55:00,
2013-05-28 18:57:00,70.9,19.4,29.82,NW,315,10.5,10.5,14,0.00,,SKC,0.31,VWS V14.00,2013-05-29 01:57:00,
2013-05-28 18:58:00,70.7,19.2,29.82,NNW,338,7.4,10.5,14,0.00,,SKC,0.31,VWS V14.00,2013-05-29 01:58:00,
2013-05-28 18:59:00,70.5,19.1,29.82,NW,315,7.2,10.5,14,0.00,,SKC,0.31,VWS V14.00,2013-05-29 01:59:00,
2013-05-28 19:00:00,70.7,19.2,29.82,NNW,338,3.8,10.5,14,0.00,,SKC,0.31,VWS V14.00,2013-05-29 02:00:00,
2013-05-28 19:02:00,70.5,19.1,29.82,NNW,338,7.4,8.7,14,0.00,,SKC,0.31,VWS V14.00,2013-05-29 02:02:00,
2013-05-28 19:03:00,70.5,19.1,29.82,NW,315,5.8,8.7,14,0.00,,SKC,0.31,VWS V14.00,2013-05-29 02:03:00,
2013-05-28 19:04:00,70.3,18.9,29.82,NNW,338,5.8,8.7,14,0.00,,SKC,0.31,VWS V14.00,2013-05-29 02:04:00,
2013-05-28 19:05:00,70.3,18.9,29.82,NNW,338,8.7,8.7,14,0.00,,SKC,0.31,VWS V14.00,2013-05-29 02:05:00,
2013-05-28 19:07:00,70.2,18.8,29.82,NNW,338,11.4,11.4,14,0.00,,SKC,0.31,VWS V14.00,2013-05-29 02:07:00,
2013-05-28 19:08:00,69.8,18.5,29.82,NNW,338,7.6,11.4,14,0.00,,SKC,0.31,VWS V14.00,2013-05-29 02:08:00,
2013-05-28 19:09:00,69.8,18.5,29.82,NNW,338,7.8,11.4,14,0.00,,SKC,0.31,VWS V14.00,2013-05-29 02:09:00,
2013-05-28 19:10:00,69.8,18.5,29.82,NNW,338,8.5,11.4,14,0.00,,SKC,0.31,VWS V14.00,2013-05-29 02:10:00,
2013-05-28 19:12:00,69.8,18.5,29.82,NNW,338,9.6,9.6,14,0.00,,SKC,0.31,VWS V14.00,2013-05-29 02:12:00,
2013-05-28 19:13:00,69.8,18.5,29.82,NNW,338,8.1,9.6,14,0.00,,SKC,0.31,VWS V14.00,2013-05-29 02:13:00,
2013-05-28 19:14:00,69.8,18.5,29.82,NNW,338,8.1,9.6,14,0.00,,SKC,0.31,VWS V14.00,2013-05-29 02:14:00,
2013-05-28 19:15:00,69.4,19.8,29.82,North,0,6.3,7.2,15,0.00,,SKC,0.31,VWS V14.00,2013-05-29 02:15:00,
2013-05-28 19:17:00,69.4,19.8,29.82,North,0,8.7,10.1,15,0.00,,SKC,0.31,VWS V14.00,2013-05-29 02:17:00,
2013-05-28 19:18:00,69.3,19.7,29.82,North,0,8.7,10.1,15,0.00,,SKC,0.31,VWS V14.00,2013-05-29 02:18:00,
2013-05-28 19:19:00,69.3,19.7,29.82,North,0,7.4,10.5,15,0.00,,SKC,0.31,VWS V14.00,2013-05-29 02:19:00,
2013-05-28 19:20:00,69.1,19.5,29.82,NNW,338,9.6,10.5,15,0.00,,SKC,0.31,VWS V14.00,2013-05-29 02:20:00,
2013-05-28 19:22:00,68.7,19.2,29.82,North,0,8.1,10.5,15,0.00,,SKC,0.31,VWS V14.00,2013-05-29 02:22:00,
2013-05-28 19:23:00,68.7,19.2,29.82,North,0,8.5,10.5,15,0.00,,SKC,0.31,VWS V14.00,2013-05-29 02:23:00,
2013-05-28 19:24:00,68.7,19.2,29.82,North,0,5.6,10.5,15,0.00,,SKC,0.31,VWS V14.00,2013-05-29 02:24:00,
2013-05-28 19:25:00,68.5,19.1,29.82,NNE,22,7.6,10.5,15,0.00,,SKC,0.31,VWS V14.00,2013-05-29 02:25:00,
2013-05-28 19:28:00,68.4,19.0,29.82,North,0,8.1,10.7,15,0.00,,SKC,0.31,VWS V14.00,2013-05-29 02:28:00,
2013-05-28 19:30:00,68.0,18.7,29.82,North,0,8.1,10.7,15,0.00,,SKC,0.31,VWS V14.00,2013-05-29 02:30:00,
2013-05-28 19:33:00,67.8,18.5,29.82,NNE,22,9.0,10.1,15,0.00,,SKC,0.31,VWS V14.00,2013-05-29 02:33:00,
2013-05-28 19:35:00,67.8,18.5,29.82,North,0,6.5,10.1,15,0.00,,SKC,0.31,VWS V14.00,2013-05-29 02:35:00,
2013-05-28 19:36:00,67.6,18.4,29.82,NNW,338,3.6,6.5,15,0.00,,SKC,0.31,VWS V14.00,2013-05-29 02:36:00,
2013-05-28 19:38:00,67.6,18.4,29.82,NNE,22,6.5,7.4,15,0.00,,SKC,0.31,VWS V14.00,2013-05-29 02:38:00,
2013-05-28 19:40:00,67.5,18.2,29.82,North,0,8.1,8.1,15,0.00,,SKC,0.31,VWS V14.00,2013-05-29 02:40:00,
2013-05-28 19:41:00,67.3,18.1,29.82,NNE,22,5.6,8.1,15,0.00,,SKC,0.31,VWS V14.00,2013-05-29 02:41:00,
2013-05-28 19:43:00,67.3,18.1,29.82,NNE,22,8.7,8.7,15,0.00,,SKC,0.31,VWS V14.00,2013-05-29 02:43:00,
2013-05-28 19:45:00,66.6,17.5,29.82,North,0,6.3,8.1,15,0.00,,SKC,0.31,VWS V14.00,2013-05-29 02:45:00,
2013-05-28 19:46:00,66.4,17.4,29.82,NNE,22,7.4,8.1,15,0.00,,SKC,0.31,VWS V14.00,2013-05-29 02:46:00,
2013-05-28 19:49:00,66.2,17.2,29.82,NNW,338,8.5,8.7,15,0.00,,SKC,0.31,VWS V14.00,2013-05-29 02:49:00,
2013-05-28 19:50:00,66.0,17.1,29.82,North,0,4.3,8.7,15,0.00,,SKC,0.31,VWS V14.00,2013-05-29 02:50:00,
2013-05-28 19:51:00,66.0,17.1,29.82,North,0,4.3,8.7,15,0.00,,SKC,0.31,VWS V14.00,2013-05-29 02:51:00,
2013-05-28 19:54:00,66.0,17.1,29.82,North,0,7.6,8.7,15,0.00,,SKC,0.31,VWS V14.00,2013-05-29 02:54:00,
2013-05-28 19:55:00,65.8,16.9,29.82,NNE,22,5.8,7.6,15,0.00,,SKC,0.31,VWS V14.00,2013-05-29 02:55:00,
2013-05-28 19:56:00,65.8,16.9,29.82,NNE,22,6.3,7.6,15,0.00,,SKC,0.31,VWS V14.00,2013-05-29 02:56:00,
2013-05-28 19:59:00,65.7,16.8,29.82,NNE,22,5.8,8.1,15,0.00,,SKC,0.31,VWS V14.00,2013-05-29 02:59:00,
2013-05-28 20:00:00,65.5,16.6,29.82,NNE,22,5.6,8.1,15,0.00,,SKC,0.31,VWS V14.00,2013-05-29 03:00:00,
2013-05-28 20:01:00,65.5,16.6,29.82,NNE,22,4.7,5.6,15,0.00,,SKC,0.31,VWS V14.00,2013-05-29 03:01:00,
2013-05-28 20:02:00,65.1,16.4,29.82,NE,45,4.0,5.6,15,0.00,,SKC,0.31,VWS V14.00,2013-05-29 03:02:00,
2013-05-28 20:04:00,64.8,16.1,29.82,NNE,22,4.9,6.3,15,0.00,,SKC,0.31,VWS V14.00,2013-05-29 03:04:00,
2013-05-28 20:05:00,64.6,15.9,29.82,NNE,22,6.3,7.2,15,0.00,,SKC,0.31,VWS V14.00,2013-05-29 03:05:00,
2013-05-28 20:06:00,64.6,15.9,29.82,NNE,22,6.3,6.3,15,0.00,,SKC,0.31,VWS V14.00,2013-05-29 03:06:00,
2013-05-28 20:07:00,64.2,17.1,29.82,North,0,5.8,6.5,16,0.00,,SKC,0.31,VWS V14.00,2013-05-29 03:07:00,
2013-05-28 20:09:00,64.2,17.1,29.82,North,0,5.8,6.5,16,0.00,,SKC,0.31,VWS V14.00,2013-05-29 03:09:00,
2013-05-28 20:10:00,64.0,17.0,29.82,North,0,7.8,7.8,16,0.00,,SKC,0.31,VWS V14.00,2013-05-29 03:10:00,
2013-05-28 20:11:00,64.0,17.0,29.82,North,0,5.4,7.8,16,0.00,,SKC,0.31,VWS V14.00,2013-05-29 03:11:00,
2013-05-28 20:12:00,64.0,17.0,29.82,NNW,338,3.4,7.8,16,0.00,,SKC,0.31,VWS V14.00,2013-05-29 03:12:00,
2013-05-28 20:14:00,63.1,16.2,29.82,NNW,338,4.0,7.8,16,0.00,,SKC,0.31,VWS V14.00,2013-05-29 03:14:00,
2013-05-28 20:15:00,63.1,16.2,29.82,NNW,338,3.4,7.8,16,0.00,,SKC,0.31,VWS V14.00,2013-05-29 03:15:00,
2013-05-28 20:16:00,63.0,16.1,29.82,NNW,338,3.6,6.5,16,0.00,,SKC,0.31,VWS V14.00,2013-05-29 03:16:00,
2013-05-28 20:17:00,63.0,16.1,29.82,North,0,8.1,8.1,16,0.00,,SKC,0.31,VWS V14.00,2013-05-29 03:17:00,
2013-05-28 20:19:00,63.0,16.1,29.82,North,0,6.0,8.1,16,0.00,,SKC,0.31,VWS V14.00,2013-05-29 03:19:00,
2013-05-28 20:20:00,62.8,15.9,29.82,NNW,338,5.4,8.1,16,0.00,,SKC,0.31,VWS V14.00,2013-05-29 03:20:00,
2013-05-28 20:21:00,62.8,15.9,29.82,NNE,22,6.3,8.7,16,0.00,,SKC,0.31,VWS V14.00,2013-05-29 03:21:00,
2013-05-28 20:22:00,62.6,15.8,29.82,NNW,338,4.7,8.7,16,0.00,,SKC,0.31,VWS V14.00,2013-05-29 03:22:00,
2013-05-28 20:24:00,62.6,15.8,29.82,North,0,4.0,8.7,16,0.00,,SKC,0.31,VWS V14.00,2013-05-29 03:24:00,
2013-05-28 20:25:00,62.4,15.7,29.82,North,0,5.8,8.7,16,0.00,,SKC,0.31,VWS V14.00,2013-05-29 03:25:00,
2013-05-28 20:27:00,62.2,15.5,29.82,North,0,6.3,6.3,16,0.00,,SKC,0.31,VWS V14.00,2013-05-29 03:27:00,
2013-05-28 20:29:00,62.2,15.5,29.82,NNW,338,6.0,6.3,16,0.00,,SKC,0.31,VWS V14.00,2013-05-29 03:29:00,
2013-05-28 20:30:00,62.1,15.4,29.82,NNW,338,5.6,5.6,16,0.00,,SKC,0.31,VWS V14.00,2013-05-29 03:30:00,
2013-05-28 20:32:00,62.1,15.4,29.82,North,0,6.5,6.5,16,0.00,,SKC,0.31,VWS V14.00,2013-05-29 03:32:00,
2013-05-28 20:34:00,61.7,15.1,29.82,North,0,3.8,6.5,16,0.00,,SKC,0.31,VWS V14.00,2013-05-29 03:34:00,
2013-05-28 20:35:00,61.7,15.1,29.82,NNE,22,3.4,3.4,16,0.00,,SKC,0.31,VWS V14.00,2013-05-29 03:35:00,
2013-05-28 20:37:00,61.3,14.8,29.82,NNW,338,5.8,5.8,16,0.00,,SKC,0.31,VWS V14.00,2013-05-29 03:37:00,
2013-05-28 20:40:00,61.2,14.6,29.82,North,0,4.3,6.0,16,0.00,,SKC,0.31,VWS V14.00,2013-05-29 03:40:00,
2013-05-28 20:42:00,61.2,14.6,29.82,NNW,338,3.1,5.8,16,0.00,,SKC,0.31,VWS V14.00,2013-05-29 03:42:00,
2013-05-28 20:45:00,61.0,14.5,29.82,North,0,3.8,5.8,16,0.00,,SKC,0.31,VWS V14.00,2013-05-29 03:45:00,
2013-05-28 20:47:00,60.8,14.4,29.82,NNW,338,2.9,5.6,16,0.00,,SKC,0.31,VWS V14.00,2013-05-29 03:47:00,
2013-05-28 20:48:00,60.8,14.4,29.82,NNW,338,3.1,5.6,16,0.00,,SKC,0.31,VWS V14.00,2013-05-29 03:48:00,
2013-05-28 20:50:00,60.6,15.6,29.82,NNW,338,2.5,5.6,17,0.00,,SKC,0.31,VWS V14.00,2013-05-29 03:50:00,
2013-05-28 20:52:00,60.3,15.3,29.82,NW,315,2.7,3.1,17,0.00,,SKC,0.31,VWS V14.00,2013-05-29 03:52:00,
2013-05-28 20:53:00,60.3,15.3,29.82,NW,315,2.7,3.1,17,0.00,,SKC,0.31,VWS V14.00,2013-05-29 03:53:00,
2013-05-28 20:55:00,60.1,15.1,29.82,NW,315,1.1,1.6,17,0.00,,SKC,0.31,VWS V14.00,2013-05-29 03:55:00,
2013-05-28 20:58:00,59.9,15.0,29.82,NNW,338,2.5,2.7,17,0.00,,SKC,0.31,VWS V14.00,2013-05-29 03:58:00,
2013-05-28 21:00:00,59.7,14.9,29.82,NNW,338,1.6,2.5,17,0.00,,SKC,0.31,VWS V14.00,2013-05-29 04:00:00,
2013-05-28 21:01:00,59.7,14.9,29.82,NNW,338,2.5,2.5,17,0.00,,SKC,0.31,VWS V14.00,2013-05-29 04:01:00,
2013-05-28 21:06:00,59.5,14.7,29.82,NNW,338,3.4,3.6,17,0.00,,SKC,0.31,VWS V14.00,2013-05-29 04:06:00,
2013-05-28 21:10:00,59.4,14.6,29.82,NW,315,1.6,3.6,17,0.00,,SKC,0.31,VWS V14.00,2013-05-29 04:10:00,
2013-05-28 21:11:00,59.2,14.4,29.82,NW,315,2.0,2.0,17,0.00,,SKC,0.31,VWS V14.00,2013-05-29 04:11:00,
2013-05-28 21:12:00,59.2,14.4,29.82,NW,315,2.0,2.0,17,0.00,,SKC,0.31,VWS V14.00,2013-05-29 04:12:00,
2013-05-28 21:15:00,59.2,14.4,29.80,NNW,338,1.3,2.9,17,0.00,,SKC,0.31,VWS V14.00,2013-05-29 04:15:00,
2013-05-28 21:16:00,59.0,14.3,29.79,NNW,338,2.0,2.5,17,0.00,,SKC,0.31,VWS V14.00,2013-05-29 04:16:00,
2013-05-28 21:17:00,59.0,14.3,29.79,NNW,338,1.6,2.5,17,0.00,,SKC,0.31,VWS V14.00,2013-05-29 04:17:00,
2013-05-28 21:20:00,58.8,14.1,29.80,NW,315,0.0,2.5,17,0.00,,SKC,0.31,VWS V14.00,2013-05-29 04:20:00,
2013-05-28 21:21:00,58.3,13.7,29.79,NW,315,0.0,0.0,17,0.00,,SKC,0.31,VWS V14.00,2013-05-29 04:21:00,
2013-05-28 21:22:00,58.3,13.7,29.79,WNW,292,0.0,0.0,17,0.00,,SKC,0.31,VWS V14.00,2013-05-29 04:22:00,
2013-05-28 21:25:00,57.9,13.4,29.80,WNW,292,0.0,1.6,17,0.00,,SKC,0.31,VWS V14.00,2013-05-29 04:25:00,
2013-05-28 21:26:00,57.7,13.2,29.79,WNW,292,0.0,0.0,17,0.00,,SKC,0.31,VWS V14.00,2013-05-29 04:26:00,
2013-05-28 21:27:00,57.6,13.1,29.79,NW,315,0.0,0.0,17,0.00,,SKC,0.31,VWS V14.00,2013-05-29 04:27:00,
2013-05-28 21:30:00,57.9,13.4,29.85,NNW,338,1.1,3.1,17,0.00,,SKC,0.31,VWS V14.00,2013-05-29 04:30:00,
2013-05-28 21:31:00,57.9,13.4,29.85,NW,315,0.0,2.7,17,0.00,,SKC,0.31,VWS V14.00,2013-05-29 04:31:00,
2013-05-28 21:32:00,57.9,13.4,29.85,NW,315,0.0,2.7,17,0.00,,SKC,0.31,VWS V14.00,2013-05-29 04:32:00,
2013-05-28 21:35:00,58.3,13.7,29.85,NNW,338,0.9,3.1,17,0.00,,SKC,0.31,VWS V14.00,2013-05-29 04:35:00,
2013-05-28 21:36:00,58.3,13.7,29.85,NNW,338,0.0,0.9,17,0.00,,SKC,0.31,VWS V14.00,2013-05-29 04:36:00,
2013-05-28 21:37:00,58.3,13.7,29.85,NNW,338,0.0,0.9,17,0.00,,SKC,0.31,VWS V14.00,2013-05-29 04:37:00,
2013-05-28 21:40:00,58.3,13.7,29.85,NE,45,1.3,2.2,17,0.00,,SKC,0.31,VWS V14.00,2013-05-29 04:40:00,
2013-05-28 21:42:00,58.3,13.7,29.85,NE,45,1.6,1.6,17,0.00,,SKC,0.31,VWS V14.00,2013-05-29 04:42:00,
2013-05-28 21:43:00,58.3,13.7,29.85,NE,45,0.0,1.6,17,0.00,,SKC,0.31,VWS V14.00,2013-05-29 04:43:00,
2013-05-28 21:45:00,58.1,13.5,29.82,NE,45,0.0,1.6,17,0.00,,SKC,0.31,VWS V14.00,2013-05-29 04:45:00,
2013-05-28 21:47:00,58.1,13.5,29.82,South,180,1.1,1.1,17,0.00,,SKC,0.31,VWS V14.00,2013-05-29 04:47:00,
2013-05-28 21:48:00,58.3,13.7,29.82,South,180,2.2,2.2,17,0.00,,SKC,0.31,VWS V14.00,2013-05-29 04:48:00,
2013-05-28 21:50:00,58.3,13.7,29.82,South,180,0.0,2.2,17,0.00,,SKC,0.31,VWS V14.00,2013-05-29 04:50:00,
2013-05-28 21:52:00,57.9,13.4,29.82,South,180,0.0,0.0,17,0.00,,SKC,0.31,VWS V14.00,2013-05-29 04:52:00,
2013-05-28 21:53:00,57.9,13.4,29.82,South,180,0.0,0.0,17,0.00,,SKC,0.31,VWS V14.00,2013-05-29 04:53:00,
2013-05-28 21:55:00,57.6,13.1,29.82,South,180,2.5,2.5,17,0.00,,SKC,0.31,VWS V14.00,2013-05-29 04:55:00,
2013-05-28 21:57:00,57.2,12.8,29.82,South,180,1.6,2.5,17,0.00,,SKC,0.31,VWS V14.00,2013-05-29 04:57:00,
2013-05-28 21:58:00,57.2,12.8,29.85,South,180,0.0,2.5,17,0.00,,SKC,0.31,VWS V14.00,2013-05-29 04:58:00,
2013-05-28 22:00:00,57.0,12.6,29.85,South,180,2.0,2.5,17,0.00,,SKC,0.31,VWS V14.00,2013-05-29 05:00:00,
2013-05-28 22:02:00,57.0,16.4,29.85,SE,135,0.0,2.0,20,0.00,,SKC,0.31,VWS V14.00,2013-05-29 05:02:00,
2013-05-28 22:03:00,57.0,16.4,29.85,SE,135,0.0,2.0,20,0.00,,SKC,0.31,VWS V14.00,2013-05-29 05:03:00,
2013-05-28 22:05:00,57.0,16.4,29.85,SE,135,0.0,2.0,20,0.00,,SKC,0.31,VWS V14.00,2013-05-29 05:05:00,
2013-05-28 22:07:00,57.0,16.4,29.85,SE,135,1.1,1.1,20,0.00,,SKC,0.31,VWS V14.00,2013-05-29 05:07:00,
2013-05-28 22:08:00,57.0,16.4,29.85,SE,135,0.0,1.1,20,0.00,,SKC,0.31,VWS V14.00,2013-05-29 05:08:00,
2013-05-28 22:12:00,55.9,15.5,29.85,South,180,0.0,1.6,20,0.00,,SKC,0.31,VWS V14.00,2013-05-29 05:12:00,
2013-05-28 22:13:00,55.9,15.5,29.85,South,180,1.1,1.6,20,0.00,,SKC,0.31,VWS V14.00,2013-05-29 05:13:00,
2013-05-28 22:15:00,55.8,15.3,29.85,South,180,0.0,1.6,20,0.00,,SKC,0.31,VWS V14.00,2013-05-29 05:15:00,
2013-05-28 22:17:00,55.8,15.3,29.85,South,180,0.0,0.0,20,0.00,,SKC,0.31,VWS V14.00,2013-05-29 05:17:00,
2013-05-28 22:18:00,55.8,15.3,29.85,South,180,0.0,0.0,20,0.00,,SKC,0.31,VWS V14.00,2013-05-29 05:18:00,
2013-05-28 22:20:00,55.8,15.3,29.85,South,180,0.0,0.0,20,0.00,,SKC,0.31,VWS V14.00,2013-05-29 05:20:00,
2013-05-28 22:22:00,55.8,15.3,29.85,South,180,0.0,0.0,20,0.00,,SKC,0.31,VWS V14.00,2013-05-29 05:22:00,
2013-05-28 22:23:00,55.8,15.3,29.85,South,180,0.0,0.0,20,0.00,,SKC,0.31,VWS V14.00,2013-05-29 05:23:00,
2013-05-28 22:24:00,55.9,15.5,29.85,South,180,0.0,0.0,20,0.00,,SKC,0.31,VWS V14.00,2013-05-29 05:24:00,
2013-05-28 22:25:00,55.8,15.3,29.85,South,180,0.0,0.0,20,0.00,,SKC,0.31,VWS V14.00,2013-05-29 05:25:00,
2013-05-28 22:27:00,55.8,15.3,29.85,South,180,0.0,0.0,20,0.00,,SKC,0.31,VWS V14.00,2013-05-29 05:27:00,
2013-05-28 22:28:00,55.8,15.3,29.85,South,180,0.0,0.0,20,0.00,,SKC,0.31,VWS V14.00,2013-05-29 05:28:00,
2013-05-28 22:29:00,55.8,15.3,29.85,South,180,0.0,0.0,20,0.00,,SKC,0.31,VWS V14.00,2013-05-29 05:29:00,
2013-05-28 22:30:00,55.8,15.3,29.85,South,180,0.0,0.0,20,0.00,,SKC,0.31,VWS V14.00,2013-05-29 05:30:00,
2013-05-28 22:33:00,55.4,15.0,29.85,South,180,0.0,0.0,20,0.00,,SKC,0.31,VWS V14.00,2013-05-29 05:33:00,
2013-05-28 22:34:00,55.4,15.0,29.85,South,180,0.0,0.0,20,0.00,,SKC,0.31,VWS V14.00,2013-05-29 05:34:00,
2013-05-28 22:35:00,55.4,15.0,29.85,South,180,0.0,0.0,20,0.00,,SKC,0.31,VWS V14.00,2013-05-29 05:35:00,
2013-05-28 22:38:00,55.6,15.2,29.85,South,180,0.0,0.0,20,0.00,,SKC,0.31,VWS V14.00,2013-05-29 05:38:00,
2013-05-28 22:39:00,55.6,15.2,29.85,South,180,0.0,0.0,20,0.00,,SKC,0.31,VWS V14.00,2013-05-29 05:39:00,
2013-05-28 22:40:00,55.4,17.2,29.85,South,180,0.0,0.0,22,0.00,,SKC,0.31,VWS V14.00,2013-05-29 05:40:00,
2013-05-28 22:43:00,55.2,18.1,29.82,ESE,112,2.0,2.9,23,0.00,,SKC,0.31,VWS V14.00,2013-05-29 05:43:00,
2013-05-28 22:44:00,55.2,18.1,29.82,East,90,1.6,2.9,23,0.00,,SKC,0.31,VWS V14.00,2013-05-29 05:44:00,
2013-05-28 22:45:00,55.2,18.1,29.82,East,90,1.6,2.9,23,0.00,,SKC,0.31,VWS V14.00,2013-05-29 05:45:00,
2013-05-28 22:48:00,54.7,17.6,29.82,East,90,0.9,2.2,23,0.00,,SKC,0.31,VWS V14.00,2013-05-29 05:48:00,
2013-05-28 22:49:00,54.5,17.5,29.82,ESE,112,0.0,2.2,23,0.00,,SKC,0.31,VWS V14.00,2013-05-29 05:49:00,
2013-05-28 22:50:00,54.5,17.5,29.82,ESE,112,0.0,2.2,23,0.00,,SKC,0.31,VWS V14.00,2013-05-29 05:50:00,
2013-05-28 22:53:00,54.5,20.3,29.82,East,90,3.8,4.0,26,0.00,,SKC,0.31,VWS V14.00,2013-05-29 05:53:00,
2013-05-28 22:54:00,54.5,20.3,29.82,East,90,4.3,4.3,26,0.00,,SKC,0.31,VWS V14.00,2013-05-29 05:54:00,
2013-05-28 22:55:00,54.7,20.5,29.82,East,90,3.8,4.3,26,0.00,,SKC,0.31,VWS V14.00,2013-05-29 05:55:00,
2013-05-28 22:58:00,55.6,20.3,29.82,East,90,2.0,4.3,25,0.00,,SKC,0.31,VWS V14.00,2013-05-29 05:58:00,
2013-05-28 22:59:00,55.6,20.3,29.82,East,90,2.0,4.3,25,0.00,,SKC,0.31,VWS V14.00,2013-05-29 05:59:00,
2013-05-28 23:00:00,55.9,21.6,29.82,ENE,68,2.7,4.3,26,0.00,,SKC,0.31,VWS V14.00,2013-05-29 06:00:00,
2013-05-28 23:03:00,55.9,20.6,29.82,North,0,3.4,4.3,25,0.00,,SKC,0.31,VWS V14.00,2013-05-29 06:03:00,
2013-05-28 23:04:00,56.1,21.7,29.82,NNE,22,2.9,4.3,26,0.00,,SKC,0.31,VWS V14.00,2013-05-29 06:04:00,
2013-05-28 23:05:00,56.3,21.9,29.82,North,0,2.9,4.3,26,0.00,,SKC,0.31,VWS V14.00,2013-05-29 06:05:00,
2013-05-28 23:09:00,56.1,21.7,29.82,WNW,292,1.3,2.9,26,0.00,,SKC,0.31,VWS V14.00,2013-05-29 06:09:00,
2013-05-28 23:10:00,56.1,21.7,29.82,WNW,292,0.0,2.9,26,0.00,,SKC,0.31,VWS V14.00,2013-05-29 06:10:00,
2013-05-28 23:14:00,56.1,21.7,29.82,West,270,1.6,2.0,26,0.00,,SKC,0.31,VWS V14.00,2013-05-29 06:14:00,
2013-05-28 23:15:00,55.9,21.6,29.82,West,270,0.0,2.0,26,0.00,,SKC,0.31,VWS V14.00,2013-05-29 06:15:00,
2013-05-28 23:19:00,55.2,21.0,29.82,West,270,0.0,2.5,26,0.00,,SKC,0.31,VWS V14.00,2013-05-29 06:19:00,
2013-05-28 23:20:00,55.2,21.0,29.82,West,270,0.0,2.5,26,0.00,,SKC,0.31,VWS V14.00,2013-05-29 06:20:00,
2013-05-28 23:24:00,55.0,20.8,29.82,West,270,0.0,0.0,26,0.00,,SKC,0.31,VWS V14.00,2013-05-29 06:24:00,
2013-05-28 23:25:00,55.0,20.8,29.82,West,270,0.0,0.0,26,0.00,,SKC,0.31,VWS V14.00,2013-05-29 06:25:00,
2013-05-28 23:29:00,54.3,20.2,29.82,West,270,0.0,0.0,26,0.00,,SKC,0.31,VWS V14.00,2013-05-29 06:29:00,
2013-05-28 23:30:00,54.1,20.0,29.82,West,270,0.0,0.0,26,0.00,,SKC,0.31,VWS V14.00,2013-05-29 06:30:00,
2013-05-28 23:34:00,54.0,19.9,29.82,West,270,0.0,1.1,26,0.00,,SKC,0.31,VWS V14.00,2013-05-29 06:34:00,
2013-05-28 23:35:00,54.0,19.9,29.82,West,270,0.0,1.1,26,0.00,,SKC,0.31,VWS V14.00,2013-05-29 06:35:00,
2013-05-28 23:39:00,54.1,20.9,29.82,NNW,338,2.2,2.2,27,0.00,,SKC,0.31,VWS V14.00,2013-05-29 06:39:00,
2013-05-28 23:40:00,54.1,20.9,29.82,NNW,338,2.2,2.2,27,0.00,,SKC,0.31,VWS V14.00,2013-05-29 06:40:00,
2013-05-28 23:41:00,54.1,20.9,29.82,NW,315,1.6,2.2,27,0.00,,SKC,0.31,VWS V14.00,2013-05-29 06:41:00,
2013-05-28 23:44:00,54.1,20.9,29.82,North,0,0.0,2.2,27,0.00,,SKC,0.31,VWS V14.00,2013-05-29 06:44:00,
2013-05-28 23:45:00,54.1,20.9,29.82,NW,315,0.0,2.2,27,0.00,,SKC,0.31,VWS V14.00,2013-05-29 06:45:00,
2013-05-28 23:46:00,54.1,20.9,29.82,NW,315,0.0,0.0,27,0.00,,SKC,0.31,VWS V14.00,2013-05-29 06:46:00,
2013-05-28 23:49:00,54.1,20.9,29.82,NW,315,0.0,0.0,27,0.00,,SKC,0.31,VWS V14.00,2013-05-29 06:49:00,
2013-05-28 23:50:00,54.0,20.8,29.82,NW,315,0.0,0.0,27,0.00,,SKC,0.31,VWS V14.00,2013-05-29 06:50:00,
2013-05-28 23:51:00,54.0,20.8,29.82,NW,315,0.0,0.0,27,0.00,,SKC,0.31,VWS V14.00,2013-05-29 06:51:00,
2013-05-28 23:54:00,54.0,21.6,29.82,NW,315,0.0,0.0,28,0.00,,SKC,0.31,VWS V14.00,2013-05-29 06:54:00,
2013-05-28 23:55:00,54.0,21.6,29.82,NNE,22,2.0,2.0,28,0.00,,SKC,0.31,VWS V14.00,2013-05-29 06:55:00,
2013-05-28 23:56:00,54.0,21.6,29.82,NNE,22,2.0,2.0,28,0.00,,SKC,0.31,VWS V14.00,2013-05-29 06:56:00,
2013-05-28 23:59:00,53.8,21.5,29.82,NNE,22,0.9,2.5,28,0.00,,SKC,0.31,VWS V14.00,2013-05-29 06:59:00,